Observation data for Throckmorton on 12/09/2018      Previous  Date       Current Mesonet Observations  Soil Data  Daily Summary Page  Observations in Plain Language
KTH1 090600Z 28008KT M00/M01 A3032 RMK A01 T10011009  RH  094%=      5-min Rain = 0
KTH1 090601Z 28008KT M00/M01 A3032 RMK A01 T10011009  RH  094%=      5-min Rain = 0
KTH1 090602Z 29007KT M00/M01 A3032 RMK A01 T10011010  RH  094%=      5-min Rain = 0
KTH1 090603Z 29008KT M00/M01 A3032 RMK A01 T10021010  RH  094%=      5-min Rain = 0
KTH1 090604Z 29007KT M00/M01 A3032 RMK A01 T10011009  RH  094%=      5-min Rain = 0
KTH1 090605Z 29007KT M00/M01 A3032 RMK A01 T10011008  RH  095%=      5-min Rain = 0
KTH1 090606Z 29007KT M00/M01 A3032 RMK A01 T10011008  RH  095%=      5-min Rain = 0
KTH1 090607Z 28008KT M00/M01 A3032 RMK A01 T10011008  RH  094%=      5-min Rain = 0
KTH1 090608Z 29007KT 00/01 A3032 RMK A01 T00-000-9  RH  094%=      5-min Rain = 0
KTH1 090609Z 29008KT M00/M01 A3032 RMK A01 T10011010  RH  094%=      5-min Rain = 0
KTH1 090610Z 28008KT M00/M01 A3032 RMK A01 T10011010  RH  094%=      5-min Rain = 0
KTH1 090611Z 29007KT M00/M01 A3032 RMK A01 T10011010  RH  094%=      5-min Rain = 0
KTH1 090612Z 29008KT M00/M01 A3032 RMK A01 T10011010  RH  094%=      5-min Rain = 0
KTH1 090613Z 29007KT M00/M01 A3032 RMK A01 T10011011  RH  093%=      5-min Rain = 0
KTH1 090614Z 29008KT M00/M01 A3032 RMK A01 T10011010  RH  093%=      5-min Rain = 0
KTH1 090615Z 29007KT M00/M01 A3032 RMK A01 T10011010  RH  093%=      5-min Rain = 0
KTH1 090616Z 28006KT M00/M01 A3032 RMK A01 T10011011  RH  093%=      5-min Rain = 0
KTH1 090617Z 28006KT M00/M01 A3032 RMK A01 T10011011  RH  093%=      5-min Rain = 0
KTH1 090618Z 28006KT M00/M01 A3032 RMK A01 T10011011  RH  093%=      5-min Rain = 0
KTH1 090619Z 28007KT M00/M01 A3032 RMK A01 T10011011  RH  093%=      5-min Rain = 0
KTH1 090620Z 28006KT M00/M01 A3032 RMK A01 T10021011  RH  093%=      5-min Rain = 0
KTH1 090621Z 29006KT M00/M01 A3032 RMK A01 T10021011  RH  094%=      5-min Rain = 0
KTH1 090622Z 29006KT M00/M01 A3032 RMK A01 T10021011  RH  094%=      5-min Rain = 0
KTH1 090623Z 29006KT M00/M01 A3032 RMK A01 T10021011  RH  094%=      5-min Rain = 0
KTH1 090624Z 29006KT M00/M01 A3032 RMK A01 T10021011  RH  094%=      5-min Rain = 0
KTH1 090625Z 29006KT M00/M01 A3032 RMK A01 T10031012  RH  094%=      5-min Rain = 0
KTH1 090626Z 29006KT M00/M01 A3032 RMK A01 T10031012  RH  094%=      5-min Rain = 0
KTH1 090627Z 28006KT M00/M01 A3032 RMK A01 T10031012  RH  094%=      5-min Rain = 0
KTH1 090628Z 28006KT M00/M01 A3032 RMK A01 T10041012  RH  094%=      5-min Rain = 0
KTH1 090629Z 28006KT M00/M01 A3032 RMK A01 T10031012  RH  094%=      5-min Rain = 0
KTH1 090630Z 29007KT M00/M01 A3032 RMK A01 T10031012  RH  094%=      5-min Rain = 0
KTH1 090631Z 29006KT M00/M01 A3032 RMK A01 T10041013  RH  094%=      5-min Rain = 0
KTH1 090632Z 29006KT M00/M01 A3032 RMK A01 T10041013  RH  094%=      5-min Rain = 0
KTH1 090633Z 29006KT M00/M01 A3032 RMK A01 T10041013  RH  094%=      5-min Rain = 0
KTH1 090634Z 29006KT M01/M01 A3032 RMK A01 T10051014  RH  094%=      5-min Rain = 0
KTH1 090635Z 29006KT M01/M01 A3032 RMK A01 T10051014  RH  094%=      5-min Rain = 0
KTH1 090636Z 28005KT M01/M01 A3032 RMK A01 T10051013  RH  094%=      5-min Rain = 0
KTH1 090637Z 29006KT M01/M01 A3032 RMK A01 T10051014  RH  094%=      5-min Rain = 0
KTH1 090638Z 29005KT M01/M01 A3032 RMK A01 T10051014  RH  093%=      5-min Rain = 0
KTH1 090639Z 29006KT M01/M01 A3032 RMK A01 T10051014  RH  093%=      5-min Rain = 0
KTH1 090640Z 29006KT M01/M02 A3032 RMK A01 T10051015  RH  093%=      5-min Rain = 0
KTH1 090641Z 29006KT M01/M02 A3032 RMK A01 T10061015  RH  093%=      5-min Rain = 0
KTH1 090642Z 29007KT M01/M02 A3032 RMK A01 T10061015  RH  093%=      5-min Rain = 0
KTH1 090643Z 29006KT M01/M02 A3032 RMK A01 T10061015  RH  094%=      5-min Rain = 0
KTH1 090644Z 30006KT M01/M02 A3032 RMK A01 T10061015  RH  093%=      5-min Rain = 0
KTH1 090645Z 29006KT M01/M01 A3032 RMK A01 T10051014  RH  094%=      5-min Rain = 0
KTH1 090646Z 29006KT M01/M01 A3032 RMK A01 T10051014  RH  094%=      5-min Rain = 0
KTH1 090647Z 29006KT M01/M01 A3032 RMK A01 T10051014  RH  094%=      5-min Rain = 0
KTH1 090648Z 30006KT M01/M01 A3032 RMK A01 T10051014  RH  094%=      5-min Rain = 0
KTH1 090649Z 29006KT M01/M02 A3032 RMK A01 T10061015  RH  094%=      5-min Rain = 0
KTH1 090650Z 29007KT M01/M02 A3032 RMK A01 T10061016  RH  093%=      5-min Rain = 0
KTH1 090651Z 29007KT M01/M02 A3032 RMK A01 T10071017  RH  093%=      5-min Rain = 0
KTH1 090652Z 29006KT M01/M02 A3032 RMK A01 T10071017  RH  093%=      5-min Rain = 0
KTH1 090653Z 28006KT M01/M02 A3032 RMK A01 T10081017  RH  093%=      5-min Rain = 0
KTH1 090654Z 29006KT M01/M02 A3032 RMK A01 T10071017  RH  094%=      5-min Rain = 0
KTH1 090655Z 29007KT M01/M02 A3032 RMK A01 T10071016  RH  094%=      5-min Rain = 0
KTH1 090656Z 30007KT M01/M02 A3032 RMK A01 T10071016  RH  094%=      5-min Rain = 0
KTH1 090657Z 29006KT M01/M02 A3032 RMK A01 T10071016  RH  094%=      5-min Rain = 0
KTH1 090658Z 30007KT M01/M02 A3032 RMK A01 T10071016  RH  094%=      5-min Rain = 0
KTH1 090659Z 30007KT M01/M02 A3032 RMK A01 T10071016  RH  094%=      5-min Rain = 0
KTH1 090700Z 29007KT M01/M02 A3032 RMK A01 T10071016  RH  093%=      5-min Rain = 0
KTH1 090701Z 29008KT M01/M02 A3032 RMK A01 T10071017  RH  093%=      5-min Rain = 0
KTH1 090702Z 29008KT M01/M02 A3032 RMK A01 T10071016  RH  093%=      5-min Rain = 0
KTH1 090703Z 29007KT M01/M02 A3032 RMK A01 T10071017  RH  093%=      5-min Rain = 0
KTH1 090704Z 29008KT M01/M02 A3032 RMK A01 T10071017  RH  093%=      5-min Rain = 0
KTH1 090705Z 29008KT M01/M02 A3032 RMK A01 T10071017  RH  093%=      5-min Rain = 0
KTH1 090706Z 29007KT M01/M02 A3032 RMK A01 T10071017  RH  093%=      5-min Rain = 0
KTH1 090707Z 29007KT M01/M02 A3032 RMK A01 T10061016  RH  093%=      5-min Rain = 0
KTH1 090708Z 29008KT M01/M02 A3032 RMK A01 T10061015  RH  094%=      5-min Rain = 0
KTH1 090709Z 29008KT M01/M02 A3032 RMK A01 T10061016  RH  093%=      5-min Rain = 0
KTH1 090710Z 29007KT M01/M02 A3032 RMK A01 T10061016  RH  093%=      5-min Rain = 0
KTH1 090711Z 29008KT M01/M02 A3032 RMK A01 T10061016  RH  093%=      5-min Rain = 0
KTH1 090712Z 29007KT M01/M02 A3032 RMK A01 T10071016  RH  093%=      5-min Rain = 0
KTH1 090713Z 29008KT M01/M02 A3032 RMK A01 T10061016  RH  093%=      5-min Rain = 0
KTH1 090714Z 29007KT M01/M02 A3032 RMK A01 T10071017  RH  093%=      5-min Rain = 0
KTH1 090715Z 29008KT M01/M02 A3032 RMK A01 T10061016  RH  093%=      5-min Rain = 0
KTH1 090716Z 29007KT M01/M02 A3032 RMK A01 T10071017  RH  093%=      5-min Rain = 0
KTH1 090717Z 29007KT M01/M02 A3032 RMK A01 T10071017  RH  093%=      5-min Rain = 0
KTH1 090718Z 29007KT M01/M02 A3032 RMK A01 T10071016  RH  093%=      5-min Rain = 0
KTH1 090719Z 29007KT M01/M02 A3032 RMK A01 T10071016  RH  093%=      5-min Rain = 0
KTH1 090720Z 30007KT M01/M02 A3032 RMK A01 T10071017  RH  093%=      5-min Rain = 0
KTH1 090721Z 30008KT M01/M02 A3032 RMK A01 T10061016  RH  093%=      5-min Rain = 0
KTH1 090722Z 29007KT M01/M02 A3032 RMK A01 T10071016  RH  093%=      5-min Rain = 0
KTH1 090723Z 30008KT M01/M02 A3032 RMK A01 T10061016  RH  093%=      5-min Rain = 0
KTH1 090724Z 29007KT M01/M02 A3032 RMK A01 T10061016  RH  093%=      5-min Rain = 0
KTH1 090725Z 29007KT M01/M02 A3032 RMK A01 T10071016  RH  093%=      5-min Rain = 0
KTH1 090726Z 30007KT M01/M02 A3032 RMK A01 T10061017  RH  093%=      5-min Rain = 0
KTH1 090727Z 30007KT M01/M02 A3032 RMK A01 T10071017  RH  093%=      5-min Rain = 0
KTH1 090728Z 30006KT M01/M02 A3032 RMK A01 T10071017  RH  093%=      5-min Rain = 0
KTH1 090729Z 29007KT M01/M02 A3032 RMK A01 T10071017  RH  093%=      5-min Rain = 0
KTH1 090730Z 30007KT M01/M02 A3032 RMK A01 T10071016  RH  093%=      5-min Rain = 0
KTH1 090731Z 29007KT M01/M02 A3032 RMK A01 T10061016  RH  093%=      5-min Rain = 0
KTH1 090732Z 29007KT M01/M02 A3032 RMK A01 T10061017  RH  093%=      5-min Rain = 0
KTH1 090733Z 29007KT M01/M02 A3032 RMK A01 T10061016  RH  093%=      5-min Rain = 0
KTH1 090734Z 29007KT M01/M02 A3032 RMK A01 T10061016  RH  093%=      5-min Rain = 0
KTH1 090735Z 29008KT M01/M02 A3032 RMK A01 T10061016  RH  093%=      5-min Rain = 0
KTH1 090736Z 30007KT M01/M02 A3032 RMK A01 T10061016  RH  093%=      5-min Rain = 0
KTH1 090737Z 29008KT M01/M02 A3032 RMK A01 T10071016  RH  093%=      5-min Rain = 0
KTH1 090738Z 29007KT M01/M02 A3032 RMK A01 T10071017  RH  093%=      5-min Rain = 0
KTH1 090739Z 29007KT M01/M02 A3032 RMK A01 T10071017  RH  093%=      5-min Rain = 0
KTH1 090740Z 29007KT M01/M02 A3032 RMK A01 T10061016  RH  093%=      5-min Rain = 0
KTH1 090741Z 29007KT M01/M02 A3032 RMK A01 T10071016  RH  093%=      5-min Rain = 0
KTH1 090742Z 29008KT M01/M02 A3032 RMK A01 T10071017  RH  093%=      5-min Rain = 0
KTH1 090743Z 30007KT M01/M02 A3031 RMK A01 T10071018  RH  093%=      5-min Rain = 0
KTH1 090744Z 29006KT M01/M02 A3031 RMK A01 T10071019  RH  092%=      5-min Rain = 0
KTH1 090745Z 29007KT M01/M02 A3031 RMK A01 T10081018  RH  092%=      5-min Rain = 0
KTH1 090746Z 30007KT M01/M02 A3031 RMK A01 T10071018  RH  093%=      5-min Rain = 0
KTH1 090747Z 29007KT M01/M02 A3031 RMK A01 T10081019  RH  092%=      5-min Rain = 0
KTH1 090748Z 29007KT M01/M02 A3032 RMK A01 T10081019  RH  092%=      5-min Rain = 0
KTH1 090749Z 29007KT M01/M02 A3032 RMK A01 T10081019  RH  092%=      5-min Rain = 0
KTH1 090750Z 29007KT M01/M02 A3032 RMK A01 T10081019  RH  092%=      5-min Rain = 0
KTH1 090751Z 29006KT M01/M02 A3032 RMK A01 T10081020  RH  092%=      5-min Rain = 0
KTH1 090752Z 30006KT M01/M02 A3032 RMK A01 T10091020  RH  092%=      5-min Rain = 0
KTH1 090753Z 29006KT M01/M02 A3032 RMK A01 T10081020  RH  092%=      5-min Rain = 0
KTH1 090754Z 29006KT M01/M02 A3032 RMK A01 T10081020  RH  092%=      5-min Rain = 0
KTH1 090755Z 30006KT M01/M02 A3032 RMK A01 T10081019  RH  093%=      5-min Rain = 0
KTH1 090756Z 29006KT M01/M02 A3032 RMK A01 T10081019  RH  093%=      5-min Rain = 0
KTH1 090757Z 29006KT M01/M02 A3032 RMK A01 T10081018  RH  093%=      5-min Rain = 0
KTH1 090758Z 29007KT M01/M02 A3032 RMK A01 T10081018  RH  093%=      5-min Rain = 0
KTH1 090759Z 29007KT M01/M02 A3032 RMK A01 T10081018  RH  093%=      5-min Rain = 0
KTH1 090800Z 29007KT M01/M02 A3032 RMK A01 T10081018  RH  093%=      5-min Rain = 0
KTH1 090801Z 29007KT M01/M02 A3032 RMK A01 T10081018  RH  093%=      5-min Rain = 0
KTH1 090802Z 29007KT M01/M02 A3032 RMK A01 T10071017  RH  093%=      5-min Rain = 0
KTH1 090803Z 29008KT M01/M02 A3032 RMK A01 T10071017  RH  093%=      5-min Rain = 0
KTH1 090804Z 30008KT M01/M02 A3032 RMK A01 T10071018  RH  092%=      5-min Rain = 0
KTH1 090805Z 30007KT M01/M02 A3032 RMK A01 T10071018  RH  092%=      5-min Rain = 0
KTH1 090806Z 29008KT M01/M02 A3032 RMK A01 T10071017  RH  093%=      5-min Rain = 0
KTH1 090807Z 29008KT M01/M02 A3032 RMK A01 T10061017  RH  092%=      5-min Rain = 0
KTH1 090808Z 29008KT M01/M02 A3032 RMK A01 T10071019  RH  092%=      5-min Rain = 0
KTH1 090809Z 29007KT M01/M02 A3032 RMK A01 T10081020  RH  092%=      5-min Rain = 0
KTH1 090810Z 29008KT M01/M02 A3032 RMK A01 T10081019  RH  092%=      5-min Rain = 0
KTH1 090811Z 29008KT M01/M02 A3032 RMK A01 T10081019  RH  092%=      5-min Rain = 0
KTH1 090812Z 29007KT M01/M02 A3032 RMK A01 T10081019  RH  092%=      5-min Rain = 0
KTH1 090813Z 29008KT M01/M02 A3032 RMK A01 T10081019  RH  092%=      5-min Rain = 0
KTH1 090814Z 29007KT M01/M02 A3032 RMK A01 T10081019  RH  092%=      5-min Rain = 0
KTH1 090815Z 29007KT M01/M02 A3032 RMK A01 T10081019  RH  093%=      5-min Rain = 0
KTH1 090816Z 29007KT M01/M02 A3032 RMK A01 T10091019  RH  093%=      5-min Rain = 0
KTH1 090817Z 29008KT M01/M02 A3032 RMK A01 T10081018  RH  093%=      5-min Rain = 0
KTH1 090818Z 29008KT M01/M02 A3032 RMK A01 T10081018  RH  093%=      5-min Rain = 0
KTH1 090819Z 30008KT M01/M02 A3032 RMK A01 T10091020  RH  093%=      5-min Rain = 0
KTH1 090820Z 29007KT M01/M02 A3032 RMK A01 T10091020  RH  092%=      5-min Rain = 0
KTH1 090821Z 29007KT M01/M02 A3032 RMK A01 T10091020  RH  092%=      5-min Rain = 0
KTH1 090822Z 29007KT M01/M02 A3032 RMK A01 T10091020  RH  093%=      5-min Rain = 0
KTH1 090823Z 29007KT M01/M02 A3032 RMK A01 T10091020  RH  092%=      5-min Rain = 0
KTH1 090824Z 29007KT M01/M02 A3032 RMK A01 T10091020  RH  092%=      5-min Rain = 0
KTH1 090825Z 29007KT M01/M02 A3032 RMK A01 T10091020  RH  093%=      5-min Rain = 0
KTH1 090826Z 29007KT M01/M02 A3032 RMK A01 T10091020  RH  093%=      5-min Rain = 0
KTH1 090827Z 29007KT M01/M02 A3032 RMK A01 T10091019  RH  093%=      5-min Rain = 0
KTH1 090828Z 29007KT M01/M02 A3032 RMK A01 T10091019  RH  093%=      5-min Rain = 0
KTH1 090829Z 29008KT M01/M02 A3032 RMK A01 T10091020  RH  093%=      5-min Rain = 0
KTH1 090830Z 30008KT M01/M02 A3032 RMK A01 T10101020  RH  093%=      5-min Rain = 0
KTH1 090831Z 30007KT M01/M02 A3032 RMK A01 T10101021  RH  093%=      5-min Rain = 0
KTH1 090832Z 30007KT M01/M02 A3032 RMK A01 T10101020  RH  093%=      5-min Rain = 0
KTH1 090833Z 30007KT M01/M02 A3032 RMK A01 T10101020  RH  093%=      5-min Rain = 0
KTH1 090834Z 30007KT M01/M02 A3032 RMK A01 T10101021  RH  093%=      5-min Rain = 0
KTH1 090835Z 30008KT M01/M02 A3032 RMK A01 T10111021  RH  093%=      5-min Rain = 0
KTH1 090836Z 30007KT M01/M02 A3032 RMK A01 T10111021  RH  093%=      5-min Rain = 0
KTH1 090837Z 29007KT M01/M02 A3032 RMK A01 T10111022  RH  092%=      5-min Rain = 0
KTH1 090838Z 29007KT M01/M02 A3032 RMK A01 T10111022  RH  093%=      5-min Rain = 0
KTH1 090839Z 29007KT M01/M02 A3032 RMK A01 T10111022  RH  093%=      5-min Rain = 0
KTH1 090840Z 29007KT M01/M02 A3032 RMK A01 T10111022  RH  093%=      5-min Rain = 0
KTH1 090841Z 29007KT M01/M02 A3032 RMK A01 T10111021  RH  093%=      5-min Rain = 0
KTH1 090842Z 28007KT M01/M02 A3032 RMK A01 T10111021  RH  093%=      5-min Rain = 0
KTH1 090843Z 29006KT M01/M02 A3032 RMK A01 T10111022  RH  093%=      5-min Rain = 0
KTH1 090844Z 29007KT M01/M02 A3032 RMK A01 T10111021  RH  093%=      5-min Rain = 0
KTH1 090845Z 29007KT M01/M02 A3032 RMK A01 T10121022  RH  093%=      5-min Rain = 0
KTH1 090846Z 29008KT M01/M02 A3032 RMK A01 T10121021  RH  093%=      5-min Rain = 0
KTH1 090847Z 29007KT M01/M02 A3032 RMK A01 T10121022  RH  093%=      5-min Rain = 0
KTH1 090848Z 30007KT M01/M02 A3032 RMK A01 T10121022  RH  093%=      5-min Rain = 0
KTH1 090849Z 30007KT M01/M02 A3032 RMK A01 T10111020  RH  093%=      5-min Rain = 0
KTH1 090850Z 30008KT M01/M02 A3032 RMK A01 T10111020  RH  094%=      5-min Rain = 0
KTH1 090851Z 30007KT M01/M02 A3032 RMK A01 T10111020  RH  093%=      5-min Rain = 0
KTH1 090852Z 30008KT M01/M02 A3032 RMK A01 T10111021  RH  093%=      5-min Rain = 0
KTH1 090853Z 30007KT M01/M02 A3032 RMK A01 T10111021  RH  093%=      5-min Rain = 0
KTH1 090854Z 30006KT M01/M02 A3032 RMK A01 T10111021  RH  092%=      5-min Rain = 0
KTH1 090855Z 30007KT M01/M02 A3032 RMK A01 T10111021  RH  093%=      5-min Rain = 0
KTH1 090856Z 30006KT M01/M02 A3032 RMK A01 T10111021  RH  093%=      5-min Rain = 0
KTH1 090857Z 30007KT M01/M02 A3032 RMK A01 T10111021  RH  093%=      5-min Rain = 0
KTH1 090858Z 30007KT M01/M02 A3032 RMK A01 T10111021  RH  093%=      5-min Rain = 0
KTH1 090859Z 30007KT M01/M02 A3032 RMK A01 T10111021  RH  093%=      5-min Rain = 0
KTH1 090900Z 30007KT M01/M02 A3032 RMK A01 T10111021  RH  093%=      5-min Rain = 0
KTH1 090901Z 30008KT M01/M02 A3032 RMK A01 T10111020  RH  093%=      5-min Rain = 0
KTH1 090902Z 30008KT M01/M02 A3032 RMK A01 T10101021  RH  093%=      5-min Rain = 0
KTH1 090903Z 31008KT M01/M02 A3032 RMK A01 T10111021  RH  093%=      5-min Rain = 0
KTH1 090904Z 30008KT M01/M02 A3032 RMK A01 T10101021  RH  093%=      5-min Rain = 0
KTH1 090905Z 30008KT M01/M02 A3032 RMK A01 T10101020  RH  093%=      5-min Rain = 0
KTH1 090906Z 30008KT M01/M02 A3032 RMK A01 T10101020  RH  093%=      5-min Rain = 0
KTH1 090907Z 30009KT M01/M02 A3032 RMK A01 T10101021  RH  093%=      5-min Rain = 0
KTH1 090908Z 30009KT M01/M02 A3032 RMK A01 T10101022  RH  092%=      5-min Rain = 0
KTH1 090909Z 30009KT M01/M02 A3032 RMK A01 T10111023  RH  092%=      5-min Rain = 0
KTH1 090910Z 30008KT M01/M02 A3032 RMK A01 T10111022  RH  092%=      5-min Rain = 0
KTH1 090911Z 30008KT M01/M02 A3032 RMK A01 T10101021  RH  092%=      5-min Rain = 0
KTH1 090912Z 30008KT M01/M02 A3032 RMK A01 T10101021  RH  092%=      5-min Rain = 0
KTH1 090913Z 30009KT M01/M02 A3032 RMK A01 T10101021  RH  092%=      5-min Rain = 0
KTH1 090914Z 31008KT M01/M02 A3032 RMK A01 T10101022  RH  092%=      5-min Rain = 0
KTH1 090915Z 30008KT M01/M02 A3032 RMK A01 T10101022  RH  092%=      5-min Rain = 0
KTH1 090916Z 31008KT M01/M02 A3032 RMK A01 T10111023  RH  091%=      5-min Rain = 0
KTH1 090917Z 31008KT M01/M02 A3032 RMK A01 T10111023  RH  092%=      5-min Rain = 0
KTH1 090918Z 30007KT M01/M02 A3032 RMK A01 T10111023  RH  091%=      5-min Rain = 0
KTH1 090919Z 31007KT M01/M02 A3032 RMK A01 T10111023  RH  091%=      5-min Rain = 0
KTH1 090920Z 30008KT M01/M02 A3032 RMK A01 T10111023  RH  092%=      5-min Rain = 0
KTH1 090921Z 30006KT M01/M02 A3032 RMK A01 T10111023  RH  092%=      5-min Rain = 0
KTH1 090922Z 30007KT M01/M02 A3032 RMK A01 T10111023  RH  092%=      5-min Rain = 0
KTH1 090923Z 31007KT M01/M02 A3032 RMK A01 T10111023  RH  092%=      5-min Rain = 0
KTH1 090924Z 31007KT M01/M02 A3032 RMK A01 T10111023  RH  092%=      5-min Rain = 0
KTH1 090925Z 31007KT M01/M02 A3032 RMK A01 T10111023  RH  092%=      5-min Rain = 0
KTH1 090926Z 31006KT M01/M02 A3032 RMK A01 T10101023  RH  091%=      5-min Rain = 0
KTH1 090927Z 32006KT M01/M02 A3032 RMK A01 T10101022  RH  092%=      5-min Rain = 0
KTH1 090928Z 32005KT M01/M02 A3032 RMK A01 T10101022  RH  092%=      5-min Rain = 0
KTH1 090929Z 32005KT M01/M02 A3032 RMK A01 T10101022  RH  092%=      5-min Rain = 0
KTH1 090930Z 31005KT M01/M02 A3032 RMK A01 T10111023  RH  091%=      5-min Rain = 0
KTH1 090931Z 32006KT M01/M02 A3031 RMK A01 T10111024  RH  091%=      5-min Rain = 0
KTH1 090932Z 32006KT M01/M03 A3031 RMK A01 T10121026  RH  090%=      5-min Rain = 0
KTH1 090933Z 33005KT M01/M03 A3031 RMK A01 T10131027  RH  090%=      5-min Rain = 0
KTH1 090934Z 32006KT M01/M03 A3031 RMK A01 T10131028  RH  090%=      5-min Rain = 0
KTH1 090935Z 32005KT M01/M03 A3031 RMK A01 T10141028  RH  090%=      5-min Rain = 0
KTH1 090936Z 32005KT M01/M03 A3031 RMK A01 T10141029  RH  090%=      5-min Rain = 0
KTH1 090937Z 31005KT M01/M03 A3031 RMK A01 T10141028  RH  090%=      5-min Rain = 0
KTH1 090938Z 31004KT M01/M03 A3031 RMK A01 T10141027  RH  091%=      5-min Rain = 0
KTH1 090939Z 32005KT M01/M03 A3031 RMK A01 T10131025  RH  091%=      5-min Rain = 0
KTH1 090940Z 32005KT M01/M03 A3031 RMK A01 T10131025  RH  092%=      5-min Rain = 0
KTH1 090941Z 32004KT M01/M03 A3031 RMK A01 T10131025  RH  091%=      5-min Rain = 0
KTH1 090942Z 32004KT M01/M03 A3031 RMK A01 T10131025  RH  091%=      5-min Rain = 0
KTH1 090943Z 32004KT M01/M03 A3031 RMK A01 T10131027  RH  091%=      5-min Rain = 0
KTH1 090944Z 32004KT M01/M03 A3031 RMK A01 T10141028  RH  090%=      5-min Rain = 0
KTH1 090945Z 32005KT M01/M03 A3031 RMK A01 T10141029  RH  090%=      5-min Rain = 0
KTH1 090946Z 32004KT M02/M03 A3031 RMK A01 T10151029  RH  090%=      5-min Rain = 0
KTH1 090947Z 32005KT M02/M03 A3031 RMK A01 T10151029  RH  090%=      5-min Rain = 0
KTH1 090948Z 31005KT M02/M03 A3031 RMK A01 T10151029  RH  090%=      5-min Rain = 0
KTH1 090949Z 32004KT M02/M03 A3031 RMK A01 T10151029  RH  090%=      5-min Rain = 0
KTH1 090950Z 32003KT M02/M03 A3031 RMK A01 T10151029  RH  090%=      5-min Rain = 0
KTH1 090951Z 31003KT M02/M03 A3031 RMK A01 T10151029  RH  090%=      5-min Rain = 0
KTH1 090952Z 32003KT M02/M03 A3031 RMK A01 T10151028  RH  091%=      5-min Rain = 0
KTH1 090953Z 31003KT M02/M03 A3031 RMK A01 T10151028  RH  091%=      5-min Rain = 0
KTH1 090954Z 31003KT M02/M03 A3031 RMK A01 T10151027  RH  091%=      5-min Rain = 0
KTH1 090955Z 31003KT M02/M03 A3031 RMK A01 T10151027  RH  091%=      5-min Rain = 0
KTH1 090956Z 31003KT M01/M03 A3031 RMK A01 T10141026  RH  092%=      5-min Rain = 0
KTH1 090957Z 32004KT M01/M03 A3031 RMK A01 T10141027  RH  091%=      5-min Rain = 0
KTH1 090958Z 32004KT M01/M03 A3031 RMK A01 T10141027  RH  091%=      5-min Rain = 0
KTH1 090959Z 32003KT M02/M03 A3031 RMK A01 T10151028  RH  091%=      5-min Rain = 0
KTH1 091000Z 32004KT M02/M03 A3031 RMK A01 T10151028  RH  091%=      5-min Rain = 0
KTH1 091001Z 32003KT M02/M03 A3031 RMK A01 T10151028  RH  091%=      5-min Rain = 0
KTH1 091002Z 32004KT M02/M03 A3031 RMK A01 T10151028  RH  091%=      5-min Rain = 0
KTH1 091003Z 31003KT M02/M03 A3031 RMK A01 T10151028  RH  091%=      5-min Rain = 0
KTH1 091004Z 31003KT M02/M03 A3031 RMK A01 T10151028  RH  091%=      5-min Rain = 0
KTH1 091005Z 31004KT M02/M03 A3031 RMK A01 T10151027  RH  091%=      5-min Rain = 0
KTH1 091006Z 30004KT M02/M03 A3031 RMK A01 T10151026  RH  092%=      5-min Rain = 0
KTH1 091007Z 30005KT M02/M03 A3031 RMK A01 T10151026  RH  092%=      5-min Rain = 0
KTH1 091008Z 30005KT M01/M03 A3031 RMK A01 T10141025  RH  093%=      5-min Rain = 0
KTH1 091009Z 30005KT M01/M02 A3031 RMK A01 T10141024  RH  093%=      5-min Rain = 0
KTH1 091010Z 30005KT M01/M02 A3031 RMK A01 T10141024  RH  093%=      5-min Rain = 0
KTH1 091011Z 30006KT M01/M03 A3031 RMK A01 T10141025  RH  092%=      5-min Rain = 0
KTH1 091012Z 30005KT M01/M03 A3031 RMK A01 T10141025  RH  092%=      5-min Rain = 0
KTH1 091013Z 29004KT M01/M03 A3031 RMK A01 T10141025  RH  092%=      5-min Rain = 0
KTH1 091014Z 30005KT M01/M03 A3031 RMK A01 T10141025  RH  092%=      5-min Rain = 0
KTH1 091015Z 30006KT M01/M03 A3031 RMK A01 T10141025  RH  092%=      5-min Rain = 0
KTH1 091016Z 30006KT M01/M03 A3031 RMK A01 T10141025  RH  092%=      5-min Rain = 0
KTH1 091017Z 30006KT M01/M03 A3031 RMK A01 T10141025  RH  092%=      5-min Rain = 0
KTH1 091018Z 30006KT M01/M03 A3031 RMK A01 T10141025  RH  092%=      5-min Rain = 0
KTH1 091019Z 30006KT M01/M03 A3031 RMK A01 T10131025  RH  092%=      5-min Rain = 0
KTH1 091020Z 29006KT M01/M03 A3031 RMK A01 T10131025  RH  092%=      5-min Rain = 0
KTH1 091021Z 29006KT M01/M02 A3031 RMK A01 T10131023  RH  092%=      5-min Rain = 0
KTH1 091022Z 29007KT M01/M02 A3031 RMK A01 T10121023  RH  093%=      5-min Rain = 0
KTH1 091023Z 30007KT M01/M02 A3031 RMK A01 T10121023  RH  092%=      5-min Rain = 0
KTH1 091024Z 30008KT M01/M02 A3031 RMK A01 T10131024  RH  092%=      5-min Rain = 0
KTH1 091025Z 30007KT M01/M02 A3031 RMK A01 T10121024  RH  092%=      5-min Rain = 0
KTH1 091026Z 30007KT M01/M02 A3031 RMK A01 T10121024  RH  092%=      5-min Rain = 0
KTH1 091027Z 30008KT M01/M03 A3031 RMK A01 T10121025  RH  091%=      5-min Rain = 0
KTH1 091028Z 30007KT M01/M02 A3031 RMK A01 T10111024  RH  091%=      5-min Rain = 0
KTH1 091029Z 30008KT M01/M02 A3031 RMK A01 T10111024  RH  091%=      5-min Rain = 0
KTH1 091030Z 30008KT M01/M02 A3032 RMK A01 T10111024  RH  091%=      5-min Rain = 0
KTH1 091031Z 30008KT M01/M03 A3032 RMK A01 T10111025  RH  090%=      5-min Rain = 0
KTH1 091032Z 30008KT M01/M02 A3032 RMK A01 T10101024  RH  090%=      5-min Rain = 0
KTH1 091033Z 30009KT M01/M02 A3032 RMK A01 T10101024  RH  090%=      5-min Rain = 0
KTH1 091034Z 30009KT M01/M03 A3032 RMK A01 T10091025  RH  089%=      5-min Rain = 0
KTH1 091035Z 30009KT M01/M02 A3032 RMK A01 T10091024  RH  089%=      5-min Rain = 0
KTH1 091036Z 30009KT M01/M03 A3032 RMK A01 T10091025  RH  089%=      5-min Rain = 0
KTH1 091037Z 31009KT M01/M03 A3032 RMK A01 T10081025  RH  089%=      5-min Rain = 0
KTH1 091038Z 31009KT M01/M02 A3032 RMK A01 T10081024  RH  089%=      5-min Rain = 0
KTH1 091039Z 31010KT M01/M03 A3032 RMK A01 T10081025  RH  089%=      5-min Rain = 0
KTH1 091040Z 31008KT M01/M03 A3032 RMK A01 T10091026  RH  088%=      5-min Rain = 0
KTH1 091041Z 31009KT M01/M03 A3032 RMK A01 T10081025  RH  089%=      5-min Rain = 0
KTH1 091042Z 31008KT M01/M03 A3032 RMK A01 T10081026  RH  088%=      5-min Rain = 0
KTH1 091043Z 31008KT M01/M03 A3032 RMK A01 T10091026  RH  088%=      5-min Rain = 0
KTH1 091044Z 31008KT M01/M03 A3032 RMK A01 T10091026  RH  089%=      5-min Rain = 0
KTH1 091045Z 32007KT M01/M03 A3032 RMK A01 T10081025  RH  089%=      5-min Rain = 0
KTH1 091046Z 32007KT M01/M03 A3032 RMK A01 T10081025  RH  088%=      5-min Rain = 0
KTH1 091047Z 32006KT M01/M03 A3032 RMK A01 T10091028  RH  087%=      5-min Rain = 0
KTH1 091048Z 33005KT M01/M03 A3032 RMK A01 T10101030  RH  086%=      5-min Rain = 0
KTH1 091049Z 33005KT M01/M03 A3032 RMK A01 T10111032  RH  086%=      5-min Rain = 0
KTH1 091050Z 34004KT M01/M03 A3032 RMK A01 T10121033  RH  086%=      5-min Rain = 0
KTH1 091051Z 33004KT M01/M03 A3032 RMK A01 T10121033  RH  086%=      5-min Rain = 0
KTH1 091052Z 33005KT M01/M03 A3032 RMK A01 T10131033  RH  086%=      5-min Rain = 0
KTH1 091053Z 33004KT M01/M03 A3032 RMK A01 T10131033  RH  087%=      5-min Rain = 0
KTH1 091054Z 33005KT M01/M03 A3032 RMK A01 T10131032  RH  087%=      5-min Rain = 0
KTH1 091055Z 33005KT M01/M03 A3032 RMK A01 T10131032  RH  087%=      5-min Rain = 0
KTH1 091056Z 33005KT M01/M03 A3032 RMK A01 T10131032  RH  087%=      5-min Rain = 0
KTH1 091057Z 32005KT M01/M03 A3032 RMK A01 T10131032  RH  087%=      5-min Rain = 0
KTH1 091058Z 32005KT M01/M03 A3032 RMK A01 T10131032  RH  087%=      5-min Rain = 0
KTH1 091059Z 32006KT M01/M03 A3032 RMK A01 T10141032  RH  087%=      5-min Rain = 0
KTH1 091100Z 32006KT M01/M03 A3032 RMK A01 T10131032  RH  087%=      5-min Rain = 0
KTH1 091101Z 31005KT M01/M03 A3032 RMK A01 T10131032  RH  087%=      5-min Rain = 0
KTH1 091102Z 31006KT M01/M03 A3032 RMK A01 T10131031  RH  088%=      5-min Rain = 0
KTH1 091103Z 32005KT M01/M03 A3032 RMK A01 T10121029  RH  088%=      5-min Rain = 0
KTH1 091104Z 31006KT M01/M03 A3032 RMK A01 T10121027  RH  089%=      5-min Rain = 0
KTH1 091105Z 31007KT M01/M03 A3032 RMK A01 T10111025  RH  090%=      5-min Rain = 0
KTH1 091106Z 31006KT M01/M03 A3032 RMK A01 T10111026  RH  090%=      5-min Rain = 0
KTH1 091107Z 31005KT M01/M03 A3032 RMK A01 T10111026  RH  089%=      5-min Rain = 0
KTH1 091108Z 31005KT M01/M03 A3032 RMK A01 T10111026  RH  090%=      5-min Rain = 0
KTH1 091109Z 32004KT M01/M03 A3032 RMK A01 T10111025  RH  090%=      5-min Rain = 0
KTH1 091110Z 31005KT M01/M03 A3032 RMK A01 T10111026  RH  089%=      5-min Rain = 0
KTH1 091111Z 32004KT M01/M03 A3032 RMK A01 T10121027  RH  089%=      5-min Rain = 0
KTH1 091112Z 31005KT M01/M03 A3032 RMK A01 T10121028  RH  089%=      5-min Rain = 0
KTH1 091113Z 31005KT M01/M03 A3032 RMK A01 T10131030  RH  088%=      5-min Rain = 0
KTH1 091114Z 31006KT M01/M03 A3032 RMK A01 T10131030  RH  089%=      5-min Rain = 0
KTH1 091115Z 31005KT M01/M03 A3032 RMK A01 T10131029  RH  089%=      5-min Rain = 0
KTH1 091116Z 31005KT M01/M03 A3032 RMK A01 T10131029  RH  089%=      5-min Rain = 0
KTH1 091117Z 31005KT M01/M03 A3032 RMK A01 T10131029  RH  089%=      5-min Rain = 0
KTH1 091118Z 31005KT M01/M03 A3032 RMK A01 T10131028  RH  090%=      5-min Rain = 0
KTH1 091119Z 32005KT M01/M03 A3032 RMK A01 T10131028  RH  090%=      5-min Rain = 0
KTH1 091120Z 31005KT M01/M03 A3032 RMK A01 T10131027  RH  090%=      5-min Rain = 0
KTH1 091121Z 31005KT M01/M03 A3032 RMK A01 T10131027  RH  090%=      5-min Rain = 0
KTH1 091122Z 32005KT M01/M03 A3033 RMK A01 T10131027  RH  090%=      5-min Rain = 0
KTH1 091123Z 31005KT M01/M03 A3033 RMK A01 T10131026  RH  091%=      5-min Rain = 0
KTH1 091124Z 31005KT M01/M03 A3033 RMK A01 T10121026  RH  091%=      5-min Rain = 0
KTH1 091125Z 31007KT M01/M03 A3033 RMK A01 T10121026  RH  091%=      5-min Rain = 0
KTH1 091126Z 31006KT M01/M03 A3033 RMK A01 T10121027  RH  090%=      5-min Rain = 0
KTH1 091127Z 31007KT M01/M03 A3033 RMK A01 T10131028  RH  089%=      5-min Rain = 0
KTH1 091128Z 31007KT M01/M03 A3033 RMK A01 T10121028  RH  089%=      5-min Rain = 0
KTH1 091129Z 31007KT M01/M03 A3033 RMK A01 T10121026  RH  090%=      5-min Rain = 0
KTH1 091130Z 31006KT M01/M02 A3033 RMK A01 T10101024  RH  090%=      5-min Rain = 0
KTH1 091131Z 31007KT M01/M02 A3033 RMK A01 T10101024  RH  090%=      5-min Rain = 0
KTH1 091132Z 31007KT M01/M03 A3033 RMK A01 T10101026  RH  089%=      5-min Rain = 0
KTH1 091133Z 31008KT M01/M03 A3033 RMK A01 T10101026  RH  089%=      5-min Rain = 0
KTH1 091134Z 31007KT M01/M03 A3033 RMK A01 T10101027  RH  088%=      5-min Rain = 0
KTH1 091135Z 31007KT M01/M03 A3033 RMK A01 T10101026  RH  089%=      5-min Rain = 0
KTH1 091136Z 30008KT M01/M03 A3033 RMK A01 T10091025  RH  089%=      5-min Rain = 0
KTH1 091137Z 31008KT M01/M03 A3033 RMK A01 T10091025  RH  089%=      5-min Rain = 0
KTH1 091138Z 31007KT M01/M03 A3033 RMK A01 T10091026  RH  089%=      5-min Rain = 0
KTH1 091139Z 31008KT M01/M02 A3033 RMK A01 T10091024  RH  089%=      5-min Rain = 0
KTH1 091140Z 31008KT M01/M03 A3033 RMK A01 T10081025  RH  089%=      5-min Rain = 0
KTH1 091141Z 31008KT M01/M03 A3033 RMK A01 T10081025  RH  089%=      5-min Rain = 0
KTH1 091142Z 31008KT M01/M03 A3033 RMK A01 T10081025  RH  088%=      5-min Rain = 0
KTH1 091143Z 31007KT M01/M03 A3033 RMK A01 T10081026  RH  088%=      5-min Rain = 0
KTH1 091144Z 31008KT M01/M02 A3033 RMK A01 T10081024  RH  089%=      5-min Rain = 0
KTH1 091145Z 31008KT M01/M02 A3033 RMK A01 T10071023  RH  089%=      5-min Rain = 0
KTH1 091146Z 32008KT M01/M02 A3033 RMK A01 T10071024  RH  088%=      5-min Rain = 0
KTH1 091147Z 31007KT M01/M03 A3033 RMK A01 T10071025  RH  088%=      5-min Rain = 0
KTH1 091148Z 31007KT M01/M03 A3033 RMK A01 T10071025  RH  088%=      5-min Rain = 0
KTH1 091149Z 31008KT M01/M03 A3033 RMK A01 T10071025  RH  088%=      5-min Rain = 0
KTH1 091150Z 31008KT M01/M03 A3033 RMK A01 T10071026  RH  087%=      5-min Rain = 0
KTH1 091151Z 32008KT M01/M03 A3033 RMK A01 T10071025  RH  087%=      5-min Rain = 0
KTH1 091152Z 31008KT M01/M03 A3033 RMK A01 T10071025  RH  088%=      5-min Rain = 0
KTH1 091153Z 31008KT M01/M03 A3034 RMK A01 T10071026  RH  087%=      5-min Rain = 0
KTH1 091154Z 31008KT M01/M03 A3034 RMK A01 T10071026  RH  087%=      5-min Rain = 0
KTH1 091155Z 31007KT M01/M03 A3034 RMK A01 T10071025  RH  088%=      5-min Rain = 0
KTH1 091156Z 31008KT M01/M03 A3034 RMK A01 T10071025  RH  088%=      5-min Rain = 0
KTH1 091157Z 31009KT M01/M02 A3034 RMK A01 T10061024  RH  088%=      5-min Rain = 0
KTH1 091158Z 32008KT M01/M03 A3034 RMK A01 T10061025  RH  087%=      5-min Rain = 0
KTH1 091159Z 32008KT M01/M03 A3034 RMK A01 T10061025  RH  087%=      5-min Rain = 0
KTH1 091200Z 31008KT M01/M02 A3034 RMK A01 T10061023  RH  088%=      5-min Rain = 0
KTH1 091201Z 31008KT M01/M02 A3034 RMK A01 T10061023  RH  088%=      5-min Rain = 0
KTH1 091202Z 31008KT M01/M02 A3034 RMK A01 T10061024  RH  087%=      5-min Rain = 0
KTH1 091203Z 31008KT M01/M03 A3034 RMK A01 T10061025  RH  087%=      5-min Rain = 0
KTH1 091204Z 31008KT M01/M03 A3034 RMK A01 T10061025  RH  087%=      5-min Rain = 0
KTH1 091205Z 31009KT M01/M03 A3034 RMK A01 T10061025  RH  087%=      5-min Rain = 0
KTH1 091206Z 31008KT M01/M03 A3034 RMK A01 T10061025  RH  087%=      5-min Rain = 0
KTH1 091207Z 31008KT M01/M03 A3034 RMK A01 T10061025  RH  087%=      5-min Rain = 0
KTH1 091208Z 31008KT M01/M02 A3034 RMK A01 T10061024  RH  087%=      5-min Rain = 0
KTH1 091209Z 30008KT M01/M02 A3034 RMK A01 T10061024  RH  088%=      5-min Rain = 0
KTH1 091210Z 31009KT M01/M02 A3034 RMK A01 T10061024  RH  087%=      5-min Rain = 0
KTH1 091211Z 31008KT M01/M03 A3034 RMK A01 T10061025  RH  087%=      5-min Rain = 0
KTH1 091212Z 30008KT M01/M03 A3034 RMK A01 T10061025  RH  087%=      5-min Rain = 0
KTH1 091213Z 31008KT M01/M03 A3034 RMK A01 T10061025  RH  087%=      5-min Rain = 0
KTH1 091214Z 31009KT M01/M02 A3034 RMK A01 T10051023  RH  088%=      5-min Rain = 0
KTH1 091215Z 31009KT M01/M02 A3034 RMK A01 T10051023  RH  087%=      5-min Rain = 0
KTH1 091216Z 31010KT M01/M02 A3034 RMK A01 T10051024  RH  087%=      5-min Rain = 0
KTH1 091217Z 31009KT M01/M03 A3035 RMK A01 T10051025  RH  086%=      5-min Rain = 0
KTH1 091218Z 31008KT M01/M02 A3035 RMK A01 T10051024  RH  087%=      5-min Rain = 0
KTH1 091219Z 31009KT M01/M02 A3035 RMK A01 T10051023  RH  087%=      5-min Rain = 0
KTH1 091220Z 31008KT M00/M02 A3035 RMK A01 T10041022  RH  088%=      5-min Rain = 0
KTH1 091221Z 31008KT M00/M02 A3035 RMK A01 T10041021  RH  088%=      5-min Rain = 0
KTH1 091222Z 31008KT M00/M02 A3035 RMK A01 T10031023  RH  087%=      5-min Rain = 0
KTH1 091223Z 30008KT M00/M02 A3035 RMK A01 T10041024  RH  086%=      5-min Rain = 0
KTH1 091224Z 30008KT M00/M02 A3035 RMK A01 T10041024  RH  086%=      5-min Rain = 0
KTH1 091225Z 31008KT M01/M03 A3035 RMK A01 T10051025  RH  086%=      5-min Rain = 0
KTH1 091226Z 31008KT M01/M03 A3035 RMK A01 T10051026  RH  086%=      5-min Rain = 0
KTH1 091227Z 31008KT M01/M03 A3035 RMK A01 T10051027  RH  085%=      5-min Rain = 0
KTH1 091228Z 30008KT M01/M03 A3035 RMK A01 T10061026  RH  086%=      5-min Rain = 0
KTH1 091229Z 31007KT M01/M02 A3035 RMK A01 T10051024  RH  087%=      5-min Rain = 0
KTH1 091230Z 31007KT M01/M02 A3035 RMK A01 T10051024  RH  087%=      5-min Rain = 0
KTH1 091231Z 30008KT M01/M02 A3035 RMK A01 T10051024  RH  087%=      5-min Rain = 0
KTH1 091232Z 31008KT M01/M03 A3035 RMK A01 T10051025  RH  086%=      5-min Rain = 0
KTH1 091233Z 31008KT M01/M03 A3036 RMK A01 T10051025  RH  086%=      5-min Rain = 0
KTH1 091234Z 30009KT M01/M03 A3036 RMK A01 T10051025  RH  086%=      5-min Rain = 0
KTH1 091235Z 31009KT M00/M03 A3036 RMK A01 T10041025  RH  086%=      5-min Rain = 0
KTH1 091236Z 31008KT M00/M03 A3036 RMK A01 T10041026  RH  086%=      5-min Rain = 0
KTH1 091237Z 31009KT M00/M03 A3036 RMK A01 T10041026  RH  085%=      5-min Rain = 0
KTH1 091238Z 31008KT M00/M03 A3036 RMK A01 T10041026  RH  085%=      5-min Rain = 0
KTH1 091239Z 31008KT M00/M03 A3036 RMK A01 T10041025  RH  086%=      5-min Rain = 0
KTH1 091240Z 31008KT M00/M03 A3036 RMK A01 T10041025  RH  086%=      5-min Rain = 0
KTH1 091241Z 31008KT M00/M02 A3036 RMK A01 T10041024  RH  087%=      5-min Rain = 0
KTH1 091242Z 31008KT M00/M02 A3036 RMK A01 T10041024  RH  086%=      5-min Rain = 0
KTH1 091243Z 31007KT M00/M03 A3036 RMK A01 T10041025  RH  086%=      5-min Rain = 0
KTH1 091244Z 31008KT M00/M03 A3036 RMK A01 T10041026  RH  086%=      5-min Rain = 0
KTH1 091245Z 31007KT M00/M02 A3036 RMK A01 T10041024  RH  086%=      5-min Rain = 0
KTH1 091246Z 31007KT M00/M02 A3036 RMK A01 T10041022  RH  088%=      5-min Rain = 0
KTH1 091247Z 31008KT M00/M02 A3036 RMK A01 T10031022  RH  087%=      5-min Rain = 0
KTH1 091248Z 31008KT M00/M03 A3036 RMK A01 T10041025  RH  086%=      5-min Rain = 0
KTH1 091249Z 31007KT M00/M03 A3036 RMK A01 T10041026  RH  085%=      5-min Rain = 0
KTH1 091250Z 31007KT M00/M03 A3036 RMK A01 T10041025  RH  086%=      5-min Rain = 0
KTH1 091251Z 31007KT M00/M03 A3036 RMK A01 T10041025  RH  086%=      5-min Rain = 0
KTH1 091252Z 31008KT M00/M03 A3036 RMK A01 T10041025  RH  086%=      5-min Rain = 0
KTH1 091253Z 31008KT M00/M03 A3036 RMK A01 T10041027  RH  085%=      5-min Rain = 0
KTH1 091254Z 31007KT M01/M03 A3036 RMK A01 T10051028  RH  084%=      5-min Rain = 0
KTH1 091255Z 31008KT M01/M03 A3036 RMK A01 T10051026  RH  086%=      5-min Rain = 0
KTH1 091256Z 30007KT M01/M03 A3036 RMK A01 T10051026  RH  086%=      5-min Rain = 0
KTH1 091257Z 31008KT M01/M03 A3036 RMK A01 T10051025  RH  086%=      5-min Rain = 0
KTH1 091258Z 30008KT M01/M03 A3036 RMK A01 T10051026  RH  086%=      5-min Rain = 0
KTH1 091259Z 31007KT M01/M03 A3036 RMK A01 T10051025  RH  086%=      5-min Rain = 0
KTH1 091300Z 30007KT M00/M02 A3036 RMK A01 T10041023  RH  087%=      5-min Rain = 0
KTH1 091301Z 31008KT M00/M02 A3036 RMK A01 T10041023  RH  087%=      5-min Rain = 0
KTH1 091302Z 31008KT M00/M02 A3036 RMK A01 T10041024  RH  086%=      5-min Rain = 0
KTH1 091303Z 31007KT M00/M03 A3036 RMK A01 T10041025  RH  086%=      5-min Rain = 0
KTH1 091304Z 31007KT M00/M03 A3036 RMK A01 T10041026  RH  085%=      5-min Rain = 0
KTH1 091305Z 31008KT M00/M03 A3036 RMK A01 T10041027  RH  085%=      5-min Rain = 0
KTH1 091306Z 31008KT M01/M03 A3036 RMK A01 T10051027  RH  085%=      5-min Rain = 0
KTH1 091307Z 31008KT M01/M03 A3036 RMK A01 T10051027  RH  085%=      5-min Rain = 0
KTH1 091308Z 31007KT M01/M03 A3036 RMK A01 T10051026  RH  085%=      5-min Rain = 0
KTH1 091309Z 31007KT M01/M03 A3036 RMK A01 T10051027  RH  085%=      5-min Rain = 0
KTH1 091310Z 31007KT M00/M03 A3036 RMK A01 T10041026  RH  086%=      5-min Rain = 0
KTH1 091311Z 31007KT M00/M03 A3036 RMK A01 T10041025  RH  086%=      5-min Rain = 0
KTH1 091312Z 30008KT M00/M03 A3036 RMK A01 T10041026  RH  085%=      5-min Rain = 0
KTH1 091313Z 31008KT M00/M03 A3036 RMK A01 T10041027  RH  085%=      5-min Rain = 0
KTH1 091314Z 31008KT M01/M03 A3036 RMK A01 T10051026  RH  085%=      5-min Rain = 0
KTH1 091315Z 30007KT M01/M03 A3036 RMK A01 T10051026  RH  085%=      5-min Rain = 0
KTH1 091316Z 30007KT M01/M03 A3036 RMK A01 T10051026  RH  086%=      5-min Rain = 0
KTH1 091317Z 30009KT M00/M03 A3036 RMK A01 T10041026  RH  085%=      5-min Rain = 0
KTH1 091318Z 31009KT M00/M03 A3036 RMK A01 T10041027  RH  085%=      5-min Rain = 0
KTH1 091319Z 30008KT M00/M03 A3036 RMK A01 T10041026  RH  085%=      5-min Rain = 0
KTH1 091320Z 30009KT M00/M03 A3036 RMK A01 T10041025  RH  086%=      5-min Rain = 0
KTH1 091321Z 30009KT M00/M03 A3036 RMK A01 T10041026  RH  085%=      5-min Rain = 0
KTH1 091322Z 31009KT M00/M03 A3036 RMK A01 T10041025  RH  086%=      5-min Rain = 0
KTH1 091323Z 31009KT M00/M02 A3036 RMK A01 T10041024  RH  086%=      5-min Rain = 0
KTH1 091324Z 31008KT M00/M02 A3036 RMK A01 T10041024  RH  086%=      5-min Rain = 0
KTH1 091325Z 31008KT M00/M02 A3037 RMK A01 T10031023  RH  086%=      5-min Rain = 0
KTH1 091326Z 31008KT M00/M03 A3037 RMK A01 T10031025  RH  086%=      5-min Rain = 0
KTH1 091327Z 31008KT M00/M03 A3037 RMK A01 T10031026  RH  085%=      5-min Rain = 0
KTH1 091328Z 31008KT M00/M03 A3037 RMK A01 T10041026  RH  085%=      5-min Rain = 0
KTH1 091329Z 31009KT M00/M03 A3037 RMK A01 T10041026  RH  085%=      5-min Rain = 0
KTH1 091330Z 30009KT M00/M03 A3037 RMK A01 T10041026  RH  085%=      5-min Rain = 0
KTH1 091331Z 30009KT M00/M03 A3037 RMK A01 T10041026  RH  085%=      5-min Rain = 0
KTH1 091332Z 31009KT M00/M03 A3037 RMK A01 T10041026  RH  085%=      5-min Rain = 0
KTH1 091333Z 30008KT M00/M03 A3037 RMK A01 T10041027  RH  085%=      5-min Rain = 0
KTH1 091334Z 30008KT M00/M03 A3037 RMK A01 T10041026  RH  085%=      5-min Rain = 0
KTH1 091335Z 31008KT M00/M03 A3037 RMK A01 T10041026  RH  085%=      5-min Rain = 0
KTH1 091336Z 31009KT M00/M03 A3037 RMK A01 T10041026  RH  085%=      5-min Rain = 0
KTH1 091337Z 31008KT M00/M03 A3037 RMK A01 T10041027  RH  084%=      5-min Rain = 0
KTH1 091338Z 31008KT M00/M03 A3037 RMK A01 T10041025  RH  085%=      5-min Rain = 0
KTH1 091339Z 31008KT M00/M03 A3037 RMK A01 T10041026  RH  085%=      5-min Rain = 0
KTH1 091340Z 31007KT M00/M03 A3037 RMK A01 T10041027  RH  084%=      5-min Rain = 0
KTH1 091341Z 31007KT M00/M03 A3037 RMK A01 T10041028  RH  084%=      5-min Rain = 0
KTH1 091342Z 31007KT M00/M03 A3037 RMK A01 T10041027  RH  084%=      5-min Rain = 0
KTH1 091343Z 31006KT M00/M03 A3037 RMK A01 T10041027  RH  084%=      5-min Rain = 0
KTH1 091344Z 31006KT M00/M03 A3037 RMK A01 T10041027  RH  085%=      5-min Rain = 0
KTH1 091345Z 31008KT M00/M03 A3037 RMK A01 T10041026  RH  085%=      5-min Rain = 0
KTH1 091346Z 31008KT M00/M03 A3037 RMK A01 T10041027  RH  085%=      5-min Rain = 0
KTH1 091347Z 31008KT M00/M03 A3037 RMK A01 T10041028  RH  084%=      5-min Rain = 0
KTH1 091348Z 31008KT M01/M03 A3037 RMK A01 T10051030  RH  083%=      5-min Rain = 0
KTH1 091349Z 31007KT M01/M03 A3037 RMK A01 T10051030  RH  083%=      5-min Rain = 0
KTH1 091350Z 31007KT M01/M03 A3037 RMK A01 T10051026  RH  085%=      5-min Rain = 0
KTH1 091351Z 31007KT M00/M03 A3037 RMK A01 T10041026  RH  085%=      5-min Rain = 0
KTH1 091352Z 31007KT M00/M03 A3037 RMK A01 T10041026  RH  085%=      5-min Rain = 0
KTH1 091353Z 31007KT M00/M03 A3037 RMK A01 T10041026  RH  085%=      5-min Rain = 0
KTH1 091354Z 31008KT M00/M03 A3037 RMK A01 T10031026  RH  085%=      5-min Rain = 0
KTH1 091355Z 31008KT M00/M03 A3037 RMK A01 T10031027  RH  084%=      5-min Rain = 0
KTH1 091356Z 31007KT M00/M03 A3037 RMK A01 T10031028  RH  084%=      5-min Rain = 0
KTH1 091357Z 31006KT M00/M03 A3037 RMK A01 T10031027  RH  084%=      5-min Rain = 0
KTH1 091358Z 31006KT M00/M03 A3037 RMK A01 T10031027  RH  084%=      5-min Rain = 0
KTH1 091359Z 31006KT M00/M03 A3037 RMK A01 T10031028  RH  083%=      5-min Rain = 0
KTH1 091400Z 30006KT M00/M03 A3037 RMK A01 T10031028  RH  084%=      5-min Rain = 0
KTH1 091401Z 30005KT M00/M03 A3037 RMK A01 T10031027  RH  084%=      5-min Rain = 0
KTH1 091402Z 30006KT M00/M03 A3037 RMK A01 T10031025  RH  085%=      5-min Rain = 0
KTH1 091403Z 30007KT M00/M02 A3037 RMK A01 T10021024  RH  085%=      5-min Rain = 0
KTH1 091404Z 30006KT M00/M03 A3037 RMK A01 T10031027  RH  084%=      5-min Rain = 0
KTH1 091405Z 31007KT M00/M03 A3037 RMK A01 T10031029  RH  083%=      5-min Rain = 0
KTH1 091406Z 31007KT M00/M03 A3037 RMK A01 T10031028  RH  083%=      5-min Rain = 0
KTH1 091407Z 31006KT M00/M03 A3037 RMK A01 T10041027  RH  084%=      5-min Rain = 0
KTH1 091408Z 30006KT M00/M03 A3037 RMK A01 T10041028  RH  084%=      5-min Rain = 0
KTH1 091409Z 30007KT M00/M03 A3037 RMK A01 T10041027  RH  084%=      5-min Rain = 0
KTH1 091410Z 31007KT M00/M03 A3037 RMK A01 T10031027  RH  084%=      5-min Rain = 0
KTH1 091411Z 31007KT M00/M03 A3037 RMK A01 T10031027  RH  084%=      5-min Rain = 0
KTH1 091412Z 31006KT M00/M03 A3038 RMK A01 T10031026  RH  084%=      5-min Rain = 0
KTH1 091413Z 30007KT M00/M02 A3037 RMK A01 T10021024  RH  085%=      5-min Rain = 0
KTH1 091414Z 31008KT M00/M03 A3037 RMK A01 T10021025  RH  085%=      5-min Rain = 0
KTH1 091415Z 31007KT M00/M03 A3037 RMK A01 T10021027  RH  083%=      5-min Rain = 0
KTH1 091416Z 31007KT M00/M03 A3038 RMK A01 T10021028  RH  083%=      5-min Rain = 0
KTH1 091417Z 31006KT M00/M03 A3038 RMK A01 T10021027  RH  083%=      5-min Rain = 0
KTH1 091418Z 30007KT M00/M03 A3038 RMK A01 T10031027  RH  084%=      5-min Rain = 0
KTH1 091419Z 31007KT M00/M03 A3038 RMK A01 T10031027  RH  084%=      5-min Rain = 0
KTH1 091420Z 30007KT M00/M03 A3038 RMK A01 T10021027  RH  084%=      5-min Rain = 0
KTH1 091421Z 30008KT M00/M03 A3038 RMK A01 T10021026  RH  084%=      5-min Rain = 0
KTH1 091422Z 31007KT M00/M03 A3038 RMK A01 T10021026  RH  084%=      5-min Rain = 0
KTH1 091423Z 31006KT M00/M03 A3038 RMK A01 T10021028  RH  083%=      5-min Rain = 0
KTH1 091424Z 30006KT M00/M03 A3038 RMK A01 T10021026  RH  084%=      5-min Rain = 0
KTH1 091425Z 30007KT M00/M03 A3038 RMK A01 T10011025  RH  084%=      5-min Rain = 0
KTH1 091426Z 31008KT M00/M03 A3038 RMK A01 T10011027  RH  083%=      5-min Rain = 0
KTH1 091427Z 30007KT M00/M03 A3038 RMK A01 T10021028  RH  082%=      5-min Rain = 0
KTH1 091428Z 30007KT M00/M03 A3038 RMK A01 T10011027  RH  083%=      5-min Rain = 0
KTH1 091429Z 30007KT M00/M03 A3038 RMK A01 T10011026  RH  083%=      5-min Rain = 0
KTH1 091430Z 30007KT M00/M03 A3038 RMK A01 T10021027  RH  083%=      5-min Rain = 0
KTH1 091431Z 30007KT M00/M03 A3038 RMK A01 T10021027  RH  083%=      5-min Rain = 0
KTH1 091432Z 30008KT M00/M03 A3038 RMK A01 T10011027  RH  083%=      5-min Rain = 0
KTH1 091433Z 30008KT M00/M03 A3038 RMK A01 T10011027  RH  082%=      5-min Rain = 0
KTH1 091434Z 30007KT M00/M03 A3038 RMK A01 T10011028  RH  082%=      5-min Rain = 0
KTH1 091435Z 30007KT M00/M03 A3038 RMK A01 T10011027  RH  083%=      5-min Rain = 0
KTH1 091436Z 30006KT M00/M03 A3038 RMK A01 T10011027  RH  083%=      5-min Rain = 0
KTH1 091437Z 31007KT M00/M03 A3038 RMK A01 T10011026  RH  083%=      5-min Rain = 0
KTH1 091438Z 30008KT 00/02 A3038 RMK A01 T00-00-24  RH  084%=      5-min Rain = 0
KTH1 091439Z 30008KT 00/03 A3038 RMK A01 T00-00-25  RH  083%=      5-min Rain = 0
KTH1 091440Z 31007KT 00/03 A3039 RMK A01 T00000-26  RH  083%=      5-min Rain = 0
KTH1 091441Z 31007KT 00/03 A3039 RMK A01 T00000-25  RH  083%=      5-min Rain = 0
KTH1 091442Z 31007KT 00/03 A3039 RMK A01 T00000-26  RH  082%=      5-min Rain = 0
KTH1 091443Z 30007KT 00/03 A3039 RMK A01 T00000-28  RH  082%=      5-min Rain = 0
KTH1 091444Z 30007KT 00/03 A3039 RMK A01 T00000-27  RH  082%=      5-min Rain = 0
KTH1 091445Z 30007KT 00/03 A3039 RMK A01 T00000-27  RH  082%=      5-min Rain = 0
KTH1 091446Z 31007KT 00/03 A3039 RMK A01 T00000-27  RH  082%=      5-min Rain = 0
KTH1 091447Z 31007KT 00/M03 A3039 RMK A01 T00011026  RH  082%=      5-min Rain = 0
KTH1 091448Z 31004KT 00/M03 A3039 RMK A01 T00011026  RH  082%=      5-min Rain = 0
KTH1 091449Z 31005KT 00/M02 A3039 RMK A01 T00021023  RH  083%=      5-min Rain = 0
KTH1 091450Z 31006KT 00/M02 A3039 RMK A01 T00031022  RH  083%=      5-min Rain = 0
KTH1 091451Z 31007KT 00/M02 A3039 RMK A01 T00031024  RH  082%=      5-min Rain = 0
KTH1 091452Z 32008KT 00/M03 A3039 RMK A01 T00031026  RH  081%=      5-min Rain = 0
KTH1 091453Z 31007KT 00/M03 A3039 RMK A01 T00031027  RH  081%=      5-min Rain = 0
KTH1 091454Z 31007KT 00/M03 A3039 RMK A01 T00031028  RH  080%=      5-min Rain = 0
KTH1 091455Z 31006KT 00/M03 A3039 RMK A01 T00021028  RH  080%=      5-min Rain = 0
KTH1 091456Z 31007KT 00/M03 A3039 RMK A01 T00021026  RH  081%=      5-min Rain = 0
KTH1 091457Z 31006KT 00/M02 A3039 RMK A01 T00031024  RH  082%=      5-min Rain = 0
KTH1 091458Z 32007KT 00/M03 A3039 RMK A01 T00031025  RH  081%=      5-min Rain = 0
KTH1 091459Z 32006KT 00/M03 A3039 RMK A01 T00031026  RH  081%=      5-min Rain = 0
KTH1 091500Z 31007KT 00/M03 A3039 RMK A01 T00031025  RH  081%=      5-min Rain = 0
KTH1 091501Z 31007KT 00/M03 A3039 RMK A01 T00031026  RH  081%=      5-min Rain = 0
KTH1 091502Z 30006KT 00/M02 A3039 RMK A01 T00041024  RH  081%=      5-min Rain = 0
KTH1 091503Z 30006KT 01/M02 A3039 RMK A01 T00061020  RH  083%=      5-min Rain = 0
KTH1 091504Z 31007KT 01/M02 A3039 RMK A01 T00061022  RH  081%=      5-min Rain = 0
KTH1 091505Z 31007KT 01/M03 A304 RMK A01 T00061025  RH  080%=      5-min Rain = 0
KTH1 091506Z 32006KT 01/M02 A304 RMK A01 T00061024  RH  080%=      5-min Rain = 0
KTH1 091507Z 31008KT 01/M02 A304 RMK A01 T00071022  RH  081%=      5-min Rain = 0
KTH1 091508Z 30008KT 01/M02 A304 RMK A01 T00081022  RH  081%=      5-min Rain = 0
KTH1 091509Z 32007KT 01/M02 A304 RMK A01 T00081022  RH  080%=      5-min Rain = 0
KTH1 091510Z 32008KT 01/M02 A304 RMK A01 T00091020  RH  081%=      5-min Rain = 0
KTH1 091511Z 31008KT 01/M02 A304 RMK A01 T00101024  RH  078%=      5-min Rain = 0
KTH1 091512Z 32007KT 01/M03 A304 RMK A01 T00091026  RH  077%=      5-min Rain = 0
KTH1 091513Z 32009KT 01/M02 A304 RMK A01 T00091024  RH  079%=      5-min Rain = 0
KTH1 091514Z 32009KT 01/M03 A304 RMK A01 T00091025  RH  078%=      5-min Rain = 0
KTH1 091515Z 32009KT 01/M03 A304 RMK A01 T00091025  RH  078%=      5-min Rain = 0
KTH1 091516Z 32009KT 01/M03 A304 RMK A01 T00091025  RH  078%=      5-min Rain = 0
KTH1 091517Z 32008KT 01/M03 A304 RMK A01 T00091025  RH  078%=      5-min Rain = 0
KTH1 091518Z 33008KT 01/M03 A304 RMK A01 T00091025  RH  078%=      5-min Rain = 0
KTH1 091519Z 33008KT 01/M02 A304 RMK A01 T00091024  RH  078%=      5-min Rain = 0
KTH1 091520Z 31008KT 01/M02 A304 RMK A01 T00101024  RH  078%=      5-min Rain = 0
KTH1 091521Z 32009KT 01/M02 A304 RMK A01 T00101024  RH  078%=      5-min Rain = 0
KTH1 091522Z 32008KT 01/M03 A304 RMK A01 T00101025  RH  078%=      5-min Rain = 0
KTH1 091523Z 32008KT 01/M02 A304 RMK A01 T00101022  RH  079%=      5-min Rain = 0
KTH1 091524Z 33007KT 01/M02 A304 RMK A01 T00101024  RH  078%=      5-min Rain = 0
KTH1 091525Z 32007KT 01/M02 A304 RMK A01 T00101024  RH  078%=      5-min Rain = 0
KTH1 091526Z 31008KT 01/M03 A304 RMK A01 T00091025  RH  078%=      5-min Rain = 0
KTH1 091527Z 31008KT 01/M03 A304 RMK A01 T00071026  RH  078%=      5-min Rain = 0
KTH1 091528Z 31008KT 01/M02 A304 RMK A01 T00071023  RH  081%=      5-min Rain = 0
KTH1 091529Z 30009KT 01/M02 A304 RMK A01 T00071024  RH  080%=      5-min Rain = 0
KTH1 091530Z 31009KT 01/M02 A304 RMK A01 T00061023  RH  081%=      5-min Rain = 0
KTH1 091531Z 31008KT 01/M02 A304 RMK A01 T00061022  RH  081%=      5-min Rain = 0
KTH1 091532Z 32009KT 01/M02 A304 RMK A01 T00061022  RH  082%=      5-min Rain = 0
KTH1 091533Z 32008KT 01/M02 A304 RMK A01 T00061023  RH  081%=      5-min Rain = 0
KTH1 091534Z 31009KT 01/M03 A304 RMK A01 T00061025  RH  080%=      5-min Rain = 0
KTH1 091535Z 30008KT 01/M02 A3041 RMK A01 T00061023  RH  081%=      5-min Rain = 0
KTH1 091536Z 31008KT 01/M02 A3041 RMK A01 T00051022  RH  082%=      5-min Rain = 0
KTH1 091537Z 31007KT 01/M02 A3041 RMK A01 T00061020  RH  083%=      5-min Rain = 0
KTH1 091538Z 31008KT 01/M02 A3041 RMK A01 T00071019  RH  083%=      5-min Rain = 0
KTH1 091539Z 31009KT 01/M02 A3041 RMK A01 T00061022  RH  081%=      5-min Rain = 0
KTH1 091540Z 31009KT 01/M02 A3041 RMK A01 T00061023  RH  081%=      5-min Rain = 0
KTH1 091541Z 31009KT 01/M02 A3041 RMK A01 T00061021  RH  082%=      5-min Rain = 0
KTH1 091542Z 31008KT 01/M02 A3041 RMK A01 T00071021  RH  081%=      5-min Rain = 0
KTH1 091543Z 32007KT 01/M02 A3041 RMK A01 T00071023  RH  080%=      5-min Rain = 0
KTH1 091544Z 32007KT 01/M02 A3041 RMK A01 T00081022  RH  080%=      5-min Rain = 0
KTH1 091545Z 32007KT 01/M02 A3041 RMK A01 T00081024  RH  079%=      5-min Rain = 0
KTH1 091546Z 32007KT 01/M03 A3041 RMK A01 T00081025  RH  079%=      5-min Rain = 0
KTH1 091547Z 31008KT 01/M02 A3041 RMK A01 T00081022  RH  080%=      5-min Rain = 0
KTH1 091548Z 31008KT 01/M02 A3041 RMK A01 T00091021  RH  081%=      5-min Rain = 0
KTH1 091549Z 31007KT 01/M02 A3041 RMK A01 T00091021  RH  080%=      5-min Rain = 0
KTH1 091550Z 30009KT 01/M02 A3041 RMK A01 T00101016  RH  083%=      5-min Rain = 0
KTH1 091551Z 30009KT 01/M02 A3041 RMK A01 T00111017  RH  082%=      5-min Rain = 0
KTH1 091552Z 31009KT 01/M02 A3041 RMK A01 T00111017  RH  082%=      5-min Rain = 0
KTH1 091553Z 31009KT 01/M02 A3041 RMK A01 T00111018  RH  081%=      5-min Rain = 0
KTH1 091554Z 31009KT 01/M02 A3041 RMK A01 T00111021  RH  079%=      5-min Rain = 0
KTH1 091555Z 32008KT 01/M02 A3041 RMK A01 T00111022  RH  079%=      5-min Rain = 0
KTH1 091556Z 31008KT 01/M02 A3042 RMK A01 T00111021  RH  079%=      5-min Rain = 0
KTH1 091557Z 31007KT 01/M02 A3042 RMK A01 T00111019  RH  081%=      5-min Rain = 0
KTH1 091558Z 31008KT 01/M02 A3042 RMK A01 T00111020  RH  080%=      5-min Rain = 0
KTH1 091559Z 30008KT 01/M02 A3042 RMK A01 T00101022  RH  079%=      5-min Rain = 0
KTH1 091600Z 31009KT 01/M02 A3042 RMK A01 T00111018  RH  081%=      5-min Rain = 0
KTH1 091601Z 31009KT 01/M02 A3042 RMK A01 T00121018  RH  081%=      5-min Rain = 0
KTH1 091602Z 32007KT 01/M02 A3042 RMK A01 T00121018  RH  081%=      5-min Rain = 0
KTH1 091603Z 31008KT 01/M02 A3042 RMK A01 T00131017  RH  081%=      5-min Rain = 0
KTH1 091604Z 32008KT 01/M02 A3042 RMK A01 T00131020  RH  078%=      5-min Rain = 0
KTH1 091605Z 32007KT 01/M02 A3042 RMK A01 T00131021  RH  078%=      5-min Rain = 0
KTH1 091606Z 32006KT 01/M02 A3042 RMK A01 T00141020  RH  078%=      5-min Rain = 0
KTH1 091607Z 31009KT 02/M02 A3042 RMK A01 T00151017  RH  079%=      5-min Rain = 0
KTH1 091608Z 31009KT 02/M02 A3042 RMK A01 T00161018  RH  078%=      5-min Rain = 0
KTH1 091609Z 31009KT 02/M02 A3042 RMK A01 T00161018  RH  078%=      5-min Rain = 0
KTH1 091610Z 32009KT 02/M02 A3042 RMK A01 T00161018  RH  078%=      5-min Rain = 0
KTH1 091611Z 32008KT 02/M02 A3042 RMK A01 T00161020  RH  077%=      5-min Rain = 0
KTH1 091612Z 31009KT 02/M02 A3042 RMK A01 T00161020  RH  077%=      5-min Rain = 0
KTH1 091613Z 31009KT 02/M02 A3042 RMK A01 T00161018  RH  078%=      5-min Rain = 0
KTH1 091614Z 30009KT 02/M02 A3042 RMK A01 T00161019  RH  077%=      5-min Rain = 0
KTH1 091615Z 30010KT 02/M02 A3042 RMK A01 T00161020  RH  077%=      5-min Rain = 0
KTH1 091616Z 30009KT 02/M02 A3042 RMK A01 T00171020  RH  077%=      5-min Rain = 0
KTH1 091617Z 30009KT 02/M02 A3042 RMK A01 T00171019  RH  077%=      5-min Rain = 0
KTH1 091618Z 30010KT 02/M02 A3042 RMK A01 T00171020  RH  076%=      5-min Rain = 0
KTH1 091619Z 32008KT 02/M02 A3042 RMK A01 T00181018  RH  077%=      5-min Rain = 0
KTH1 091620Z 30009KT 02/M02 A3042 RMK A01 T00191019  RH  076%=      5-min Rain = 0
KTH1 091621Z 30008KT 02/M02 A3042 RMK A01 T00181021  RH  075%=      5-min Rain = 0
KTH1 091622Z 31009KT 02/M02 A3042 RMK A01 T00181018  RH  077%=      5-min Rain = 0
KTH1 091623Z 31009KT 02/M02 A3042 RMK A01 T00181020  RH  076%=      5-min Rain = 0
KTH1 091624Z 31008KT 02/M02 A3042 RMK A01 T00181020  RH  076%=      5-min Rain = 0
KTH1 091625Z 30009KT 02/M02 A3042 RMK A01 T00181017  RH  078%=      5-min Rain = 0
KTH1 091626Z 29010KT 02/M02 A3042 RMK A01 T00191018  RH  077%=      5-min Rain = 0
KTH1 091627Z 30011KT 02/M02 A3042 RMK A01 T00191015  RH  078%=      5-min Rain = 0
KTH1 091628Z 29010KT 02/M02 A3042 RMK A01 T00191015  RH  078%=      5-min Rain = 0
KTH1 091629Z 30009KT 02/M01 A3042 RMK A01 T00191014  RH  078%=      5-min Rain = 0
KTH1 091630Z 30010KT 02/M02 A3042 RMK A01 T00191015  RH  078%=      5-min Rain = 0
KTH1 091631Z 30009KT 02/M01 A3042 RMK A01 T00191014  RH  078%=      5-min Rain = 0
KTH1 091632Z 31010KT 02/M01 A3042 RMK A01 T00201014  RH  078%=      5-min Rain = 0
KTH1 091633Z 31011KT 02/M02 A3042 RMK A01 T00191016  RH  077%=      5-min Rain = 0
KTH1 091634Z 31009KT 02/M02 A3042 RMK A01 T00181018  RH  077%=      5-min Rain = 0
KTH1 091635Z 32009KT 02/M01 A3042 RMK A01 T00181014  RH  079%=      5-min Rain = 0
KTH1 091636Z 31011KT 02/M01 A3042 RMK A01 T00191012  RH  080%=      5-min Rain = 0
KTH1 091637Z 31011KT 02/M02 A3042 RMK A01 T00201015  RH  078%=      5-min Rain = 0
KTH1 091638Z 31010KT 02/M02 A3042 RMK A01 T00201016  RH  077%=      5-min Rain = 0
KTH1 091639Z 30010KT 02/M02 A3042 RMK A01 T00191016  RH  078%=      5-min Rain = 0
KTH1 091640Z 30010KT 02/M02 A3042 RMK A01 T00201015  RH  078%=      5-min Rain = 0
KTH1 091641Z 30010KT 02/M01 A3042 RMK A01 T00221010  RH  080%=      5-min Rain = 0
KTH1 091642Z 30011KT 02/M01 A3041 RMK A01 T00231011  RH  078%=      5-min Rain = 0
KTH1 091643Z 30010KT 02/M01 A3042 RMK A01 T00231012  RH  078%=      5-min Rain = 0
KTH1 091644Z 30010KT 02/M01 A3042 RMK A01 T00241011  RH  078%=      5-min Rain = 0
KTH1 091645Z 30011KT 03/M01 A3042 RMK A01 T00251011  RH  078%=      5-min Rain = 0
KTH1 091646Z 30011KT 02/M01 A3042 RMK A01 T00241013  RH  077%=      5-min Rain = 0
KTH1 091647Z 30011KT 02/M01 A3042 RMK A01 T00241013  RH  077%=      5-min Rain = 0
KTH1 091648Z 30011KT 02/M01 A3042 RMK A01 T00241013  RH  077%=      5-min Rain = 0
KTH1 091649Z 31010KT 02/M01 A3042 RMK A01 T00241011  RH  078%=      5-min Rain = 0
KTH1 091650Z 29009KT 02/M01 A3042 RMK A01 T00241011  RH  077%=      5-min Rain = 0
KTH1 091651Z 29010KT 03/M01 A3042 RMK A01 T00261005  RH  080%=      5-min Rain = 0
KTH1 091652Z 30009KT 03/M00 A3042 RMK A01 T00281004  RH  079%=      5-min Rain = 0
KTH1 091653Z 31008KT 03/M00 A3042 RMK A01 T00301004  RH  079%=      5-min Rain = 0
KTH1 091654Z 30009KT 03/M01 A3042 RMK A01 T00301005  RH  078%=      5-min Rain = 0
KTH1 091655Z 32010KT 03/M01 A3042 RMK A01 T00301006  RH  077%=      5-min Rain = 0
KTH1 091656Z 32010KT 03/M01 A3042 RMK A01 T00311008  RH  076%=      5-min Rain = 0
KTH1 091657Z 32009KT 03/M01 A3042 RMK A01 T00311010  RH  075%=      5-min Rain = 0
KTH1 091658Z 30012KT 03/M01 A3042 RMK A01 T00311010  RH  074%=      5-min Rain = 0
KTH1 091659Z 30010KT 03/M01 A3042 RMK A01 T00311010  RH  074%=      5-min Rain = 0
KTH1 091700Z 30011KT 03/M01 A3042 RMK A01 T00301009  RH  075%=      5-min Rain = 0
KTH1 091701Z 30011KT 03/M01 A3042 RMK A01 T00311008  RH  075%=      5-min Rain = 0
KTH1 091702Z 30011KT 03/M01 A3042 RMK A01 T00321007  RH  076%=      5-min Rain = 0
KTH1 091703Z 31010KT 03/M01 A3042 RMK A01 T00321006  RH  076%=      5-min Rain = 0
KTH1 091704Z 30009KT 03/M01 A3042 RMK A01 T00321007  RH  075%=      5-min Rain = 0
KTH1 091705Z 31011KT 03/M01 A3042 RMK A01 T00341007  RH  075%=      5-min Rain = 0
KTH1 091706Z 31010KT 03/M01 A3042 RMK A01 T00341009  RH  073%=      5-min Rain = 0
KTH1 091707Z 32011KT 04/M01 A3042 RMK A01 T00361005  RH  075%=      5-min Rain = 0
KTH1 091708Z 31012KT 04/M01 A3042 RMK A01 T00371005  RH  074%=      5-min Rain = 0
KTH1 091709Z 31010KT 04/M01 A3042 RMK A01 T00361006  RH  074%=      5-min Rain = 0
KTH1 091710Z 31009KT 04/M00 A3042 RMK A01 T00361003  RH  075%=      5-min Rain = 0
KTH1 091711Z 31010KT 04/M00 A3041 RMK A01 T00371004  RH  075%=      5-min Rain = 0
KTH1 091712Z 32010KT 04/M01 A3042 RMK A01 T00371007  RH  073%=      5-min Rain = 0
KTH1 091713Z 33010KT 04/M01 A3042 RMK A01 T00371007  RH  073%=      5-min Rain = 0
KTH1 091714Z 32009KT 04/M01 A3041 RMK A01 T00381007  RH  073%=      5-min Rain = 0
KTH1 091715Z 31010KT 04/M01 A3041 RMK A01 T00381008  RH  072%=      5-min Rain = 0
KTH1 091716Z 32009KT 04/M01 A3041 RMK A01 T00391006  RH  072%=      5-min Rain = 0
KTH1 091717Z 32008KT 04/M00 A3041 RMK A01 T00401004  RH  073%=      5-min Rain = 0
KTH1 091718Z 32010KT 04/M01 A3041 RMK A01 T00411006  RH  071%=      5-min Rain = 0
KTH1 091719Z 32008KT 04/M01 A3041 RMK A01 T00411009  RH  070%=      5-min Rain = 0
KTH1 091720Z 31010KT 04/M01 A3041 RMK A01 T00421009  RH  070%=      5-min Rain = 0
KTH1 091721Z 32009KT 04/M01 A3041 RMK A01 T00411012  RH  068%=      5-min Rain = 0
KTH1 091722Z 31010KT 04/M01 A3041 RMK A01 T00411009  RH  070%=      5-min Rain = 0
KTH1 091723Z 31011KT 04/M01 A3041 RMK A01 T00411009  RH  070%=      5-min Rain = 0
KTH1 091724Z 33011KT 04/M01 A3041 RMK A01 T00421009  RH  070%=      5-min Rain = 0
KTH1 091725Z 33009KT 04/M01 A3041 RMK A01 T00411014  RH  067%=      5-min Rain = 0
KTH1 091726Z 32010KT 04/M01 A3041 RMK A01 T00411014  RH  068%=      5-min Rain = 0
KTH1 091727Z 31010KT 04/M01 A3041 RMK A01 T00411010  RH  069%=      5-min Rain = 0
KTH1 091728Z 31010KT 04/M01 A3041 RMK A01 T00431006  RH  071%=      5-min Rain = 0
KTH1 091729Z 31010KT 04/M01 A3041 RMK A01 T00441010  RH  068%=      5-min Rain = 0
KTH1 091730Z 31012KT 04/M01 A3041 RMK A01 T00431013  RH  067%=      5-min Rain = 0
KTH1 091731Z 32012KT 04/M01 A3041 RMK A01 T00421011  RH  068%=      5-min Rain = 0
KTH1 091732Z 32012KT 04/M01 A3041 RMK A01 T00421012  RH  068%=      5-min Rain = 0
KTH1 091733Z 32011KT 04/M01 A3041 RMK A01 T00421013  RH  067%=      5-min Rain = 0
KTH1 091734Z 31011KT 04/M01 A3041 RMK A01 T00411014  RH  067%=      5-min Rain = 0
KTH1 091735Z 32009KT 04/M01 A3041 RMK A01 T00411014  RH  068%=      5-min Rain = 0
KTH1 091736Z 33009KT 04/M01 A3041 RMK A01 T00411013  RH  067%=      5-min Rain = 0
KTH1 091737Z 32010KT 04/M02 A3041 RMK A01 T00421015  RH  067%=      5-min Rain = 0
KTH1 091738Z 32011KT 04/M01 A3041 RMK A01 T00421013  RH  067%=      5-min Rain = 0
KTH1 091739Z 33010KT 04/M02 A3041 RMK A01 T00421017  RH  066%=      5-min Rain = 0
KTH1 091740Z 32009KT 04/M02 A304 RMK A01 T00411021  RH  064%=      5-min Rain = 0
KTH1 091741Z 32009KT 04/M02 A304 RMK A01 T00421018  RH  065%=      5-min Rain = 0
KTH1 091742Z 33009KT 04/M02 A304 RMK A01 T00421016  RH  066%=      5-min Rain = 0
KTH1 091743Z 31012KT 04/M01 A304 RMK A01 T00431014  RH  066%=      5-min Rain = 0
KTH1 091744Z 31012KT 04/M01 A304 RMK A01 T00431014  RH  066%=      5-min Rain = 0
KTH1 091745Z 32010KT 04/M02 A304 RMK A01 T00431017  RH  065%=      5-min Rain = 0
KTH1 091746Z 32009KT 04/M02 A304 RMK A01 T00431018  RH  065%=      5-min Rain = 0
KTH1 091747Z 33010KT 04/M02 A304 RMK A01 T00431016  RH  066%=      5-min Rain = 0
KTH1 091748Z 33009KT 04/M02 A304 RMK A01 T00441019  RH  064%=      5-min Rain = 0
KTH1 091749Z 34008KT 04/M02 A304 RMK A01 T00441019  RH  064%=      5-min Rain = 0
KTH1 091750Z 33007KT 05/M02 A304 RMK A01 T00451017  RH  064%=      5-min Rain = 0
KTH1 091751Z 34006KT 05/M02 A304 RMK A01 T00461017  RH  064%=      5-min Rain = 0
KTH1 091752Z 32008KT 05/M01 A304 RMK A01 T00481014  RH  064%=      5-min Rain = 0
KTH1 091753Z 33007KT 05/M02 A304 RMK A01 T00491019  RH  061%=      5-min Rain = 0
KTH1 091754Z 33009KT 05/M02 A304 RMK A01 T00491016  RH  063%=      5-min Rain = 0
KTH1 091755Z 33008KT 05/M02 A304 RMK A01 T00491017  RH  062%=      5-min Rain = 0
KTH1 091756Z 33008KT 05/M02 A304 RMK A01 T00481017  RH  063%=      5-min Rain = 0
KTH1 091757Z 33010KT 05/M02 A304 RMK A01 T00481018  RH  062%=      5-min Rain = 0
KTH1 091758Z 32009KT 05/M02 A304 RMK A01 T00481018  RH  062%=      5-min Rain = 0
KTH1 091759Z 32013KT 05/M02 A304 RMK A01 T00471017  RH  063%=      5-min Rain = 0
KTH1 091800Z 32010KT 05/M02 A304 RMK A01 T00471019  RH  062%=      5-min Rain = 0
KTH1 091801Z 32010KT 05/M02 A304 RMK A01 T00471022  RH  061%=      5-min Rain = 0
KTH1 091802Z 32008G13KT 05/M02 A304 RMK A01 T00461021  RH  062%=      5-min Rain = 0
KTH1 091803Z 32009KT 05/M02 A3039 RMK A01 T00471023  RH  061%=      5-min Rain = 0
KTH1 091804Z 34007KT 05/M02 A304 RMK A01 T00471020  RH  062%=      5-min Rain = 0
KTH1 091805Z 33007KT 05/M02 A3039 RMK A01 T00481018  RH  062%=      5-min Rain = 0
KTH1 091806Z 33005KT 05/M02 A3039 RMK A01 T00491016  RH  063%=      5-min Rain = 0
KTH1 091807Z 33007KT 05/M02 A3039 RMK A01 T00501016  RH  062%=      5-min Rain = 0
KTH1 091808Z 33012KT 05/M01 A3039 RMK A01 T00501014  RH  063%=      5-min Rain = 0
KTH1 091809Z 32009KT 05/M02 A3039 RMK A01 T00501017  RH  062%=      5-min Rain = 0
KTH1 091810Z 31009KT 05/M02 A3039 RMK A01 T00491015  RH  063%=      5-min Rain = 0
KTH1 091811Z 31009KT 05/M01 A3039 RMK A01 T00491012  RH  064%=      5-min Rain = 0
KTH1 091812Z 30008KT 05/M01 A3039 RMK A01 T00501014  RH  063%=      5-min Rain = 0
KTH1 091813Z 31010G15KT 05/M02 A3039 RMK A01 T00501015  RH  063%=      5-min Rain = 0
KTH1 091814Z 33009KT 05/M02 A3039 RMK A01 T00491018  RH  062%=      5-min Rain = 0
KTH1 091815Z 33008KT 05/M02 A3039 RMK A01 T00491018  RH  062%=      5-min Rain = 0
KTH1 091816Z 31008KT 05/M02 A3039 RMK A01 T00501017  RH  062%=      5-min Rain = 0
KTH1 091817Z 31008KT 05/M02 A3039 RMK A01 T00501018  RH  061%=      5-min Rain = 0
KTH1 091818Z 31010KT 05/M01 A3039 RMK A01 T00501014  RH  064%=      5-min Rain = 0
KTH1 091819Z 30011KT 05/M02 A3039 RMK A01 T00501017  RH  062%=      5-min Rain = 0
KTH1 091820Z 30011KT 05/M01 A3039 RMK A01 T00491012  RH  064%=      5-min Rain = 0
KTH1 091821Z 31011KT 05/M01 A3039 RMK A01 T00491014  RH  064%=      5-min Rain = 0
KTH1 091822Z 31007KT 05/M02 A3039 RMK A01 T00481016  RH  063%=      5-min Rain = 0
KTH1 091823Z 30009KT 05/M01 A3039 RMK A01 T00481014  RH  064%=      5-min Rain = 0
KTH1 091824Z 31009KT 05/M01 A3039 RMK A01 T00491012  RH  065%=      5-min Rain = 0
KTH1 091825Z 32008KT 05/M01 A3039 RMK A01 T00491014  RH  064%=      5-min Rain = 0
KTH1 091826Z 32006KT 05/M02 A3039 RMK A01 T00501016  RH  062%=      5-min Rain = 0
KTH1 091827Z 34007KT 05/M02 A3039 RMK A01 T00511015  RH  062%=      5-min Rain = 0
KTH1 091828Z 33006KT 05/M02 A3039 RMK A01 T00531017  RH  061%=      5-min Rain = 0
KTH1 091829Z 32007KT 05/M02 A3039 RMK A01 T00531021  RH  059%=      5-min Rain = 0
KTH1 091830Z 32006KT 05/M02 A3039 RMK A01 T00521017  RH  061%=      5-min Rain = 0
KTH1 091831Z 33005KT 05/M01 A3039 RMK A01 T00531014  RH  062%=      5-min Rain = 0
KTH1 091832Z 32008KT 05/M02 A3039 RMK A01 T00541015  RH  061%=      5-min Rain = 0
KTH1 091833Z 33008KT 05/M02 A3039 RMK A01 T00541019  RH  059%=      5-min Rain = 0
KTH1 091834Z 32006KT 05/M02 A3038 RMK A01 T00541023  RH  058%=      5-min Rain = 0
KTH1 091835Z 34006KT 05/M02 A3038 RMK A01 T00541016  RH  061%=      5-min Rain = 0
KTH1 091836Z 35008G14KT 06/M02 A3038 RMK A01 T00551018  RH  059%=      5-min Rain = 0
KTH1 091837Z 35008KT 06/M02 A3038 RMK A01 T00561020  RH  058%=      5-min Rain = 0
KTH1 091838Z 33008KT 06/M02 A3038 RMK A01 T00561022  RH  057%=      5-min Rain = 0
KTH1 091839Z 33007KT 06/M03 A3038 RMK A01 T00551028  RH  055%=      5-min Rain = 0
KTH1 091840Z 32008KT 05/M03 A3038 RMK A01 T00541027  RH  056%=      5-min Rain = 0
KTH1 091841Z 31008KT 05/M02 A3038 RMK A01 T00541022  RH  058%=      5-min Rain = 0
KTH1 091842Z 31012KT 05/M02 A3038 RMK A01 T00541019  RH  059%=      5-min Rain = 0
KTH1 091843Z 33010KT 05/M02 A3038 RMK A01 T00541018  RH  060%=      5-min Rain = 0
KTH1 091844Z 33008KT 06/M02 A3038 RMK A01 T00551023  RH  058%=      5-min Rain = 0
KTH1 091845Z 32006KT 05/M02 A3038 RMK A01 T00541024  RH  057%=      5-min Rain = 0
KTH1 091846Z 33007KT 06/M02 A3038 RMK A01 T00551021  RH  058%=      5-min Rain = 0
KTH1 091847Z 34009KT 06/M02 A3038 RMK A01 T00551022  RH  057%=      5-min Rain = 0
KTH1 091848Z 34006KT 06/M03 A3038 RMK A01 T00551030  RH  054%=      5-min Rain = 0
KTH1 091849Z 33007KT 05/M03 A3038 RMK A01 T00541026  RH  056%=      5-min Rain = 0
KTH1 091850Z 32009KT 06/M03 A3037 RMK A01 T00551026  RH  056%=      5-min Rain = 0
KTH1 091851Z 31009KT 06/M02 A3037 RMK A01 T00551023  RH  057%=      5-min Rain = 0
KTH1 091852Z 32010KT 06/M02 A3037 RMK A01 T00561019  RH  058%=      5-min Rain = 0
KTH1 091853Z 31010KT 06/M02 A3037 RMK A01 T00561019  RH  059%=      5-min Rain = 0
KTH1 091854Z 32008KT 06/M02 A3037 RMK A01 T00551022  RH  057%=      5-min Rain = 0
KTH1 091855Z 32009KT 06/M02 A3037 RMK A01 T00551023  RH  057%=      5-min Rain = 0
KTH1 091856Z 32010KT 06/M02 A3037 RMK A01 T00551023  RH  057%=      5-min Rain = 0
KTH1 091857Z 31011KT 06/M03 A3037 RMK A01 T00561026  RH  056%=      5-min Rain = 0
KTH1 091858Z 32014KT 06/M03 A3037 RMK A01 T00551026  RH  056%=      5-min Rain = 0
KTH1 091859Z 33011KT 05/M03 A3037 RMK A01 T00541031  RH  054%=      5-min Rain = 0
KTH1 091900Z 32008KT 05/M03 A3037 RMK A01 T00541032  RH  054%=      5-min Rain = 0
KTH1 091901Z 34008KT 06/M02 A3037 RMK A01 T00551021  RH  058%=      5-min Rain = 0
KTH1 091902Z 33009KT 06/M03 A3037 RMK A01 T00581025  RH  055%=      5-min Rain = 0
KTH1 091903Z 32010KT 06/M03 A3037 RMK A01 T00571033  RH  052%=      5-min Rain = 0
KTH1 091904Z 33009KT 06/M03 A3037 RMK A01 T00571032  RH  053%=      5-min Rain = 0
KTH1 091905Z 34007KT 06/M03 A3037 RMK A01 T00571027  RH  055%=      5-min Rain = 0
KTH1 091906Z 33008KT 06/M02 A3037 RMK A01 T00581022  RH  056%=      5-min Rain = 0
KTH1 091907Z 34010KT 06/M02 A3037 RMK A01 T00581022  RH  056%=      5-min Rain = 0
KTH1 091908Z 34008KT 06/M02 A3037 RMK A01 T00581022  RH  056%=      5-min Rain = 0
KTH1 091909Z 33008KT 06/M02 A3037 RMK A01 T00581020  RH  057%=      5-min Rain = 0
KTH1 091910Z 33011KT 06/M03 A3037 RMK A01 T00591028  RH  054%=      5-min Rain = 0
KTH1 091911Z 31011KT 06/M03 A3037 RMK A01 T00591034  RH  051%=      5-min Rain = 0
KTH1 091912Z 32009KT 06/M03 A3037 RMK A01 T00581029  RH  054%=      5-min Rain = 0
KTH1 091913Z 33009KT 06/M03 A3037 RMK A01 T00581027  RH  054%=      5-min Rain = 0
KTH1 091914Z 33008KT 06/M03 A3036 RMK A01 T00581029  RH  054%=      5-min Rain = 0
KTH1 091915Z 33009KT 06/M02 A3036 RMK A01 T00591023  RH  056%=      5-min Rain = 0
KTH1 091916Z 32007KT 06/M03 A3036 RMK A01 T00591026  RH  054%=      5-min Rain = 0
KTH1 091917Z 31007KT 06/M02 A3036 RMK A01 T00581022  RH  056%=      5-min Rain = 0
KTH1 091918Z 32010KT 06/M02 A3036 RMK A01 T00581020  RH  057%=      5-min Rain = 0
KTH1 091919Z 33010KT 06/M02 A3036 RMK A01 T00601020  RH  057%=      5-min Rain = 0
KTH1 091920Z 32011KT 06/M03 A3036 RMK A01 T00611025  RH  054%=      5-min Rain = 0
KTH1 091921Z 32008KT 06/M03 A3036 RMK A01 T00601027  RH  054%=      5-min Rain = 0
KTH1 091922Z 31006KT 06/M03 A3036 RMK A01 T00581026  RH  055%=      5-min Rain = 0
KTH1 091923Z 32010KT 06/M02 A3036 RMK A01 T00591024  RH  055%=      5-min Rain = 0
KTH1 091924Z 33009KT 06/M03 A3036 RMK A01 T00591027  RH  054%=      5-min Rain = 0
KTH1 091925Z 32010KT 06/M03 A3036 RMK A01 T00591028  RH  053%=      5-min Rain = 0
KTH1 091926Z 30007KT 06/M03 A3036 RMK A01 T00591029  RH  053%=      5-min Rain = 0
KTH1 091927Z 31007KT 06/M03 A3036 RMK A01 T00601028  RH  053%=      5-min Rain = 0
KTH1 091928Z 32007KT 06/M03 A3036 RMK A01 T00601029  RH  053%=      5-min Rain = 0
KTH1 091929Z 32009KT 06/M02 A3036 RMK A01 T00601023  RH  055%=      5-min Rain = 0
KTH1 091930Z 31011KT 06/M03 A3036 RMK A01 T00611027  RH  053%=      5-min Rain = 0
KTH1 091931Z 31011KT 06/M03 A3036 RMK A01 T00601027  RH  054%=      5-min Rain = 0
KTH1 091932Z 33008KT 06/M02 A3036 RMK A01 T00601021  RH  056%=      5-min Rain = 0
KTH1 091933Z 33009KT 06/M02 A3036 RMK A01 T00621024  RH  054%=      5-min Rain = 0
KTH1 091934Z 33009KT 06/M03 A3036 RMK A01 T00631027  RH  053%=      5-min Rain = 0
KTH1 091935Z 34008KT 06/M03 A3036 RMK A01 T00631029  RH  052%=      5-min Rain = 0
KTH1 091936Z 34007KT 06/M03 A3036 RMK A01 T00621030  RH  052%=      5-min Rain = 0
KTH1 091937Z 32008KT 06/M03 A3036 RMK A01 T00611026  RH  054%=      5-min Rain = 0
KTH1 091938Z 30009KT 06/M02 A3036 RMK A01 T00631021  RH  055%=      5-min Rain = 0
KTH1 091939Z 31007KT 06/M02 A3036 RMK A01 T00641019  RH  055%=      5-min Rain = 0
KTH1 091940Z 34007KT 06/M02 A3036 RMK A01 T00641022  RH  054%=      5-min Rain = 0
KTH1 091941Z 34008KT 07/M03 A3036 RMK A01 T00651030  RH  051%=      5-min Rain = 0
KTH1 091942Z 35008KT 07/M03 A3035 RMK A01 T00651031  RH  050%=      5-min Rain = 0
KTH1 091943Z 34008KT 07/M03 A3035 RMK A01 T00651029  RH  051%=      5-min Rain = 0
KTH1 091944Z 35008KT 07/M03 A3036 RMK A01 T00651029  RH  051%=      5-min Rain = 0
KTH1 091945Z 32008KT 07/M02 A3036 RMK A01 T00651024  RH  053%=      5-min Rain = 0
KTH1 091946Z 33010KT 07/M03 A3036 RMK A01 T00661025  RH  052%=      5-min Rain = 0
KTH1 091947Z 32008KT 07/M04 A3036 RMK A01 T00661036  RH  048%=      5-min Rain = 0
KTH1 091948Z 34011KT 06/M04 A3036 RMK A01 T00641035  RH  049%=      5-min Rain = 0
KTH1 091949Z 34007KT 06/M03 A3036 RMK A01 T00641034  RH  050%=      5-min Rain = 0
KTH1 091950Z 32009KT 06/M03 A3036 RMK A01 T00641028  RH  052%=      5-min Rain = 0
KTH1 091951Z 31009KT 07/M03 A3036 RMK A01 T00651032  RH  050%=      5-min Rain = 0
KTH1 091952Z 32009KT 06/M03 A3036 RMK A01 T00641029  RH  051%=      5-min Rain = 0
KTH1 091953Z 33008KT 06/M03 A3036 RMK A01 T00641028  RH  052%=      5-min Rain = 0
KTH1 091954Z 33006KT 07/M03 A3036 RMK A01 T00651029  RH  051%=      5-min Rain = 0
KTH1 091955Z 35007KT 07/M03 A3036 RMK A01 T00651026  RH  052%=      5-min Rain = 0
KTH1 091956Z 33008KT 07/M03 A3036 RMK A01 T00661026  RH  052%=      5-min Rain = 0
KTH1 091957Z 33009KT 07/M03 A3036 RMK A01 T00661030  RH  050%=      5-min Rain = 0
KTH1 091958Z 33007KT 07/M03 A3036 RMK A01 T00661027  RH  051%=      5-min Rain = 0
KTH1 091959Z 32007KT 07/M02 A3035 RMK A01 T00681023  RH  052%=      5-min Rain = 0
KTH1 092000Z 32009KT 07/M02 A3035 RMK A01 T00681023  RH  052%=      5-min Rain = 0
KTH1 092001Z 33010KT 07/M03 A3035 RMK A01 T00671026  RH  051%=      5-min Rain = 0
KTH1 092002Z 33011KT 07/M02 A3036 RMK A01 T00661023  RH  053%=      5-min Rain = 0
KTH1 092003Z 32009KT 07/M02 A3036 RMK A01 T00661021  RH  054%=      5-min Rain = 0
KTH1 092004Z 31010KT 07/M02 A3036 RMK A01 T00681018  RH  054%=      5-min Rain = 0
KTH1 092005Z 32010KT 07/M02 A3035 RMK A01 T00681021  RH  053%=      5-min Rain = 0
KTH1 092006Z 32012KT 07/M02 A3035 RMK A01 T00671020  RH  054%=      5-min Rain = 0
KTH1 092007Z 31011KT 07/M02 A3035 RMK A01 T00671019  RH  054%=      5-min Rain = 0
KTH1 092008Z 31012KT 07/M01 A3035 RMK A01 T00661014  RH  056%=      5-min Rain = 0
KTH1 092009Z 31010KT 07/M02 A3035 RMK A01 T00661017  RH  055%=      5-min Rain = 0
KTH1 092010Z 32010KT 07/M02 A3035 RMK A01 T00651020  RH  055%=      5-min Rain = 0
KTH1 092011Z 31010KT 07/M02 A3035 RMK A01 T00661022  RH  054%=      5-min Rain = 0
KTH1 092012Z 31011KT 07/M02 A3035 RMK A01 T00651021  RH  054%=      5-min Rain = 0
KTH1 092013Z 32010KT 07/M02 A3035 RMK A01 T00661020  RH  054%=      5-min Rain = 0
KTH1 092014Z 32009KT 07/M02 A3035 RMK A01 T00661020  RH  054%=      5-min Rain = 0
KTH1 092015Z 32009KT 07/M02 A3035 RMK A01 T00661022  RH  053%=      5-min Rain = 0
KTH1 092016Z 32008KT 07/M02 A3035 RMK A01 T00661023  RH  053%=      5-min Rain = 0
KTH1 092017Z 32007KT 07/M02 A3035 RMK A01 T00661021  RH  054%=      5-min Rain = 0
KTH1 092018Z 31008KT 07/M02 A3035 RMK A01 T00671015  RH  056%=      5-min Rain = 0
KTH1 092019Z 31010KT 07/M02 A3035 RMK A01 T00681016  RH  055%=      5-min Rain = 0
KTH1 092020Z 31007KT 07/M02 A3035 RMK A01 T00681016  RH  055%=      5-min Rain = 0
KTH1 092021Z 31008KT 07/M01 A3035 RMK A01 T00681010  RH  057%=      5-min Rain = 0
KTH1 092022Z 32006KT 07/M00 A3035 RMK A01 T00691004  RH  059%=      5-min Rain = 0
KTH1 092023Z 33007KT 07/M01 A3035 RMK A01 T00721009  RH  057%=      5-min Rain = 0
KTH1 092024Z 31008KT 07/M01 A3035 RMK A01 T00721013  RH  055%=      5-min Rain = 0
KTH1 092025Z 31011KT 07/M01 A3035 RMK A01 T00721014  RH  054%=      5-min Rain = 0
KTH1 092026Z 31013KT 07/M02 A3035 RMK A01 T00711015  RH  054%=      5-min Rain = 0
KTH1 092027Z 31011KT 07/M02 A3035 RMK A01 T00701015  RH  055%=      5-min Rain = 0
KTH1 092028Z 31011KT 07/M02 A3035 RMK A01 T00701016  RH  054%=      5-min Rain = 0
KTH1 092029Z 31009KT 07/M01 A3035 RMK A01 T00691013  RH  056%=      5-min Rain = 0
KTH1 092030Z 29009KT 07/M01 A3035 RMK A01 T00691008  RH  058%=      5-min Rain = 0
KTH1 092031Z 30010KT 07/M01 A3035 RMK A01 T00701011  RH  056%=      5-min Rain = 0
KTH1 092032Z 31012KT 07/M01 A3035 RMK A01 T00701010  RH  057%=      5-min Rain = 0
KTH1 092033Z 32010KT 07/M02 A3035 RMK A01 T00681016  RH  055%=      5-min Rain = 0
KTH1 092034Z 32008KT 07/M02 A3035 RMK A01 T00671017  RH  055%=      5-min Rain = 0
KTH1 092035Z 32006KT 07/M02 A3035 RMK A01 T00671015  RH  056%=      5-min Rain = 0
KTH1 092036Z 31008KT 07/M01 A3035 RMK A01 T00681013  RH  056%=      5-min Rain = 0
KTH1 092037Z 30009KT 07/M01 A3035 RMK A01 T00691012  RH  056%=      5-min Rain = 0
KTH1 092038Z 30011KT 07/M02 A3035 RMK A01 T00701017  RH  054%=      5-min Rain = 0
KTH1 092039Z 32011KT 07/M01 A3035 RMK A01 T00701014  RH  055%=      5-min Rain = 0
KTH1 092040Z 31009KT 07/M02 A3035 RMK A01 T00711016  RH  054%=      5-min Rain = 0
KTH1 092041Z 31010KT 07/M02 A3035 RMK A01 T00711015  RH  054%=      5-min Rain = 0
KTH1 092042Z 31011KT 07/M02 A3035 RMK A01 T00691022  RH  052%=      5-min Rain = 0
KTH1 092043Z 30011KT 07/M02 A3035 RMK A01 T00681021  RH  053%=      5-min Rain = 0
KTH1 092044Z 32009KT 07/M02 A3035 RMK A01 T00691018  RH  054%=      5-min Rain = 0
KTH1 092045Z 31008KT 07/M02 A3035 RMK A01 T00691020  RH  053%=      5-min Rain = 0
KTH1 092046Z 32011KT 07/M02 A3035 RMK A01 T00691023  RH  052%=      5-min Rain = 0
KTH1 092047Z 32011KT 07/M02 A3035 RMK A01 T00701018  RH  054%=      5-min Rain = 0
KTH1 092048Z 32010KT 07/M02 A3035 RMK A01 T00701021  RH  052%=      5-min Rain = 0
KTH1 092049Z 31007KT 07/M02 A3035 RMK A01 T00701023  RH  052%=      5-min Rain = 0
KTH1 092050Z 31009KT 07/M02 A3035 RMK A01 T00701021  RH  052%=      5-min Rain = 0
KTH1 092051Z 32010KT 07/M02 A3035 RMK A01 T00711020  RH  052%=      5-min Rain = 0
KTH1 092052Z 32009KT 07/M02 A3035 RMK A01 T00711021  RH  052%=      5-min Rain = 0
KTH1 092053Z 31008KT 07/M02 A3035 RMK A01 T00711024  RH  051%=      5-min Rain = 0
KTH1 092054Z 32010KT 07/M02 A3035 RMK A01 T00721023  RH  051%=      5-min Rain = 0
KTH1 092055Z 31007KT 07/M03 A3035 RMK A01 T00721029  RH  049%=      5-min Rain = 0
KTH1 092056Z 30007KT 07/M03 A3035 RMK A01 T00711027  RH  050%=      5-min Rain = 0
KTH1 092057Z 31007KT 07/M02 A3035 RMK A01 T00721021  RH  052%=      5-min Rain = 0
KTH1 092058Z 33009KT 07/M03 A3035 RMK A01 T00721025  RH  050%=      5-min Rain = 0
KTH1 092059Z 33009KT 07/M02 A3035 RMK A01 T00721023  RH  051%=      5-min Rain = 0
KTH1 092100Z 33007KT 07/M02 A3034 RMK A01 T00721023  RH  051%=      5-min Rain = 0
KTH1 092101Z 33007KT 07/M02 A3034 RMK A01 T00721023  RH  051%=      5-min Rain = 0
KTH1 092102Z 33010KT 07/M02 A3034 RMK A01 T00721023  RH  051%=      5-min Rain = 0
KTH1 092103Z 33008KT 07/M02 A3034 RMK A01 T00731024  RH  050%=      5-min Rain = 0
KTH1 092104Z 33007KT 07/M03 A3034 RMK A01 T00731028  RH  049%=      5-min Rain = 0
KTH1 092105Z 33008KT 07/M03 A3034 RMK A01 T00731029  RH  048%=      5-min Rain = 0
KTH1 092106Z 32009KT 07/M03 A3034 RMK A01 T00731033  RH  047%=      5-min Rain = 0
KTH1 092107Z 32011KT 07/M03 A3034 RMK A01 T00731030  RH  048%=      5-min Rain = 0
KTH1 092108Z 31008KT 07/M02 A3034 RMK A01 T00721023  RH  051%=      5-min Rain = 0
KTH1 092109Z 32008KT 07/M02 A3034 RMK A01 T00721020  RH  052%=      5-min Rain = 0
KTH1 092110Z 30008KT 07/M02 A3034 RMK A01 T00721023  RH  051%=      5-min Rain = 0
KTH1 092111Z 30011KT 07/M02 A3034 RMK A01 T00711023  RH  051%=      5-min Rain = 0
KTH1 092112Z 31011KT 07/M02 A3034 RMK A01 T00711022  RH  051%=      5-min Rain = 0
KTH1 092113Z 31010KT 07/M02 A3034 RMK A01 T00711019  RH  053%=      5-min Rain = 0
KTH1 092114Z 31009KT 07/M02 A3034 RMK A01 T00711017  RH  053%=      5-min Rain = 0
KTH1 092115Z 31010KT 07/M01 A3034 RMK A01 T00711013  RH  055%=      5-min Rain = 0
KTH1 092116Z 31010KT 07/M02 A3034 RMK A01 T00721016  RH  054%=      5-min Rain = 0
KTH1 092117Z 31009KT 07/M02 A3034 RMK A01 T00711016  RH  054%=      5-min Rain = 0
KTH1 092118Z 32011KT 07/M02 A3035 RMK A01 T00711016  RH  054%=      5-min Rain = 0
KTH1 092119Z 32010KT 07/M02 A3035 RMK A01 T00711018  RH  053%=      5-min Rain = 0
KTH1 092120Z 32010KT 07/M02 A3035 RMK A01 T00721020  RH  052%=      5-min Rain = 0
KTH1 092121Z 33010KT 07/M02 A3035 RMK A01 T00721018  RH  053%=      5-min Rain = 0
KTH1 092122Z 32010KT 07/M02 A3035 RMK A01 T00721021  RH  052%=      5-min Rain = 0
KTH1 092123Z 31010KT 07/M02 A3035 RMK A01 T00721021  RH  051%=      5-min Rain = 0
KTH1 092124Z 31009KT 07/M02 A3035 RMK A01 T00721017  RH  053%=      5-min Rain = 0
KTH1 092125Z 32012KT 07/M01 A3035 RMK A01 T00721011  RH  055%=      5-min Rain = 0
KTH1 092126Z 32009KT 07/M01 A3035 RMK A01 T00721011  RH  056%=      5-min Rain = 0
KTH1 092127Z 31007KT 07/M01 A3035 RMK A01 T00721008  RH  057%=      5-min Rain = 0
KTH1 092128Z 31009KT 07/M01 A3035 RMK A01 T00721005  RH  058%=      5-min Rain = 0
KTH1 092129Z 30009KT 07/M01 A3035 RMK A01 T00721005  RH  058%=      5-min Rain = 0
KTH1 092130Z 31012KT 07/M01 A3035 RMK A01 T00731006  RH  057%=      5-min Rain = 0
KTH1 092131Z 31011KT 07/M01 A3035 RMK A01 T00731005  RH  058%=      5-min Rain = 0
KTH1 092132Z 30010KT 07/M01 A3035 RMK A01 T00731007  RH  057%=      5-min Rain = 0
KTH1 092133Z 30011KT 07/M01 A3035 RMK A01 T00731009  RH  056%=      5-min Rain = 0
KTH1 092134Z 30012KT 07/M01 A3035 RMK A01 T00721009  RH  056%=      5-min Rain = 0
KTH1 092135Z 30010KT 07/M01 A3035 RMK A01 T00721011  RH  055%=      5-min Rain = 0
KTH1 092136Z 30011KT 07/M01 A3035 RMK A01 T00721010  RH  056%=      5-min Rain = 0
KTH1 092137Z 30013KT 07/M01 A3035 RMK A01 T00721011  RH  056%=      5-min Rain = 0
KTH1 092138Z 31013KT 07/M01 A3035 RMK A01 T00721009  RH  056%=      5-min Rain = 0
KTH1 092139Z 31011KT 07/M01 A3035 RMK A01 T00721009  RH  057%=      5-min Rain = 0
KTH1 092140Z 31010KT 07/M01 A3035 RMK A01 T00711012  RH  055%=      5-min Rain = 0
KTH1 092141Z 31009KT 07/M01 A3035 RMK A01 T00711011  RH  056%=      5-min Rain = 0
KTH1 092142Z 30012KT 07/M01 A3035 RMK A01 T00711012  RH  056%=      5-min Rain = 0
KTH1 092143Z 29012KT 07/M01 A3035 RMK A01 T00711013  RH  055%=      5-min Rain = 0
KTH1 092144Z 30010KT 07/M01 A3035 RMK A01 T00721014  RH  054%=      5-min Rain = 0
KTH1 092145Z 31011KT 07/M01 A3035 RMK A01 T00721014  RH  054%=      5-min Rain = 0
KTH1 092146Z 31010KT 07/M02 A3035 RMK A01 T00711016  RH  054%=      5-min Rain = 0
KTH1 092147Z 30009KT 07/M01 A3035 RMK A01 T00711014  RH  055%=      5-min Rain = 0
KTH1 092148Z 31011KT 07/M01 A3035 RMK A01 T00711013  RH  055%=      5-min Rain = 0
KTH1 092149Z 30010KT 07/M01 A3035 RMK A01 T00711014  RH  055%=      5-min Rain = 0
KTH1 092150Z 30010KT 07/M01 A3035 RMK A01 T00711012  RH  056%=      5-min Rain = 0
KTH1 092151Z 30012KT 07/M01 A3035 RMK A01 T00711011  RH  056%=      5-min Rain = 0
KTH1 092152Z 30012KT 07/M01 A3035 RMK A01 T00711014  RH  054%=      5-min Rain = 0
KTH1 092153Z 30011KT 07/M01 A3035 RMK A01 T00711011  RH  056%=      5-min Rain = 0
KTH1 092154Z 31010KT 07/M01 A3035 RMK A01 T00711014  RH  055%=      5-min Rain = 0
KTH1 092155Z 30010KT 07/M01 A3035 RMK A01 T00711013  RH  055%=      5-min Rain = 0
KTH1 092156Z 30012KT 07/M02 A3035 RMK A01 T00701016  RH  054%=      5-min Rain = 0
KTH1 092157Z 30010KT 07/M02 A3035 RMK A01 T00701017  RH  054%=      5-min Rain = 0
KTH1 092158Z 30012KT 07/M01 A3035 RMK A01 T00701012  RH  056%=      5-min Rain = 0
KTH1 092159Z 31013KT 07/M01 A3035 RMK A01 T00701013  RH  056%=      5-min Rain = 0
KTH1 092200Z 31011KT 07/M01 A3035 RMK A01 T00701012  RH  056%=      5-min Rain = 0
KTH1 092201Z 31010KT 07/M01 A3035 RMK A01 T00701013  RH  055%=      5-min Rain = 0
KTH1 092202Z 32009KT 07/M01 A3035 RMK A01 T00701014  RH  055%=      5-min Rain = 0
KTH1 092203Z 31012KT 07/M01 A3035 RMK A01 T00711014  RH  055%=      5-min Rain = 0
KTH1 092204Z 30012KT 07/M02 A3035 RMK A01 T00711015  RH  054%=      5-min Rain = 0
KTH1 092205Z 31012KT 07/M01 A3035 RMK A01 T00711013  RH  055%=      5-min Rain = 0
KTH1 092206Z 31011KT 07/M02 A3035 RMK A01 T00701016  RH  054%=      5-min Rain = 0
KTH1 092207Z 31010KT 07/M01 A3035 RMK A01 T00701013  RH  055%=      5-min Rain = 0
KTH1 092208Z 31010KT 07/M01 A3035 RMK A01 T00711011  RH  056%=      5-min Rain = 0
KTH1 092209Z 30010KT 07/M01 A3035 RMK A01 T00711013  RH  055%=      5-min Rain = 0
KTH1 092210Z 31013KT 07/M02 A3035 RMK A01 T00711017  RH  054%=      5-min Rain = 0
KTH1 092211Z 31013KT 07/M02 A3035 RMK A01 T00701019  RH  053%=      5-min Rain = 0
KTH1 092212Z 30011KT 07/M02 A3035 RMK A01 T00701020  RH  053%=      5-min Rain = 0
KTH1 092213Z 29012KT 07/M02 A3035 RMK A01 T00691021  RH  053%=      5-min Rain = 0
KTH1 092214Z 30012KT 07/M02 A3035 RMK A01 T00691020  RH  053%=      5-min Rain = 0
KTH1 092215Z 30011KT 07/M02 A3035 RMK A01 T00691017  RH  054%=      5-min Rain = 0
KTH1 092216Z 30010KT 07/M02 A3036 RMK A01 T00691018  RH  054%=      5-min Rain = 0
KTH1 092217Z 30010KT 07/M02 A3036 RMK A01 T00691016  RH  055%=      5-min Rain = 0
KTH1 092218Z 31012KT 07/M02 A3036 RMK A01 T00701015  RH  055%=      5-min Rain = 0
KTH1 092219Z 31010KT 07/M02 A3036 RMK A01 T00701019  RH  053%=      5-min Rain = 0
KTH1 092220Z 30013KT 07/M02 A3036 RMK A01 T00701018  RH  054%=      5-min Rain = 0
KTH1 092221Z 29012KT 07/M02 A3036 RMK A01 T00701016  RH  055%=      5-min Rain = 0
KTH1 092222Z 30012KT 07/M02 A3036 RMK A01 T00691016  RH  054%=      5-min Rain = 0
KTH1 092223Z 31012KT 07/M02 A3036 RMK A01 T00691020  RH  053%=      5-min Rain = 0
KTH1 092224Z 31010KT 07/M02 A3036 RMK A01 T00691021  RH  053%=      5-min Rain = 0
KTH1 092225Z 31012KT 07/M02 A3036 RMK A01 T00691017  RH  054%=      5-min Rain = 0
KTH1 092226Z 31013KT 07/M02 A3036 RMK A01 T00691017  RH  054%=      5-min Rain = 0
KTH1 092227Z 31011KT 07/M02 A3036 RMK A01 T00691016  RH  055%=      5-min Rain = 0
KTH1 092228Z 30010KT 07/M02 A3036 RMK A01 T00691015  RH  055%=      5-min Rain = 0
KTH1 092229Z 30011KT 07/M01 A3036 RMK A01 T00691013  RH  056%=      5-min Rain = 0
KTH1 092230Z 31012KT 07/M01 A3036 RMK A01 T00691014  RH  056%=      5-min Rain = 0
KTH1 092231Z 30012KT 07/M02 A3036 RMK A01 T00691015  RH  055%=      5-min Rain = 0
KTH1 092232Z 31012KT 07/M02 A3035 RMK A01 T00681016  RH  055%=      5-min Rain = 0
KTH1 092233Z 31011KT 07/M02 A3036 RMK A01 T00681017  RH  054%=      5-min Rain = 0
KTH1 092234Z 32009KT 07/M02 A3035 RMK A01 T00681017  RH  055%=      5-min Rain = 0
KTH1 092235Z 32011KT 07/M02 A3035 RMK A01 T00681019  RH  054%=      5-min Rain = 0
KTH1 092236Z 32009KT 07/M02 A3035 RMK A01 T00681020  RH  053%=      5-min Rain = 0
KTH1 092237Z 31011KT 07/M02 A3035 RMK A01 T00681019  RH  054%=      5-min Rain = 0
KTH1 092238Z 31010KT 07/M02 A3036 RMK A01 T00681019  RH  054%=      5-min Rain = 0
KTH1 092239Z 31008KT 07/M02 A3036 RMK A01 T00671017  RH  055%=      5-min Rain = 0
KTH1 092240Z 30010KT 07/M01 A3036 RMK A01 T00671011  RH  057%=      5-min Rain = 0
KTH1 092241Z 30010KT 07/M02 A3036 RMK A01 T00671016  RH  055%=      5-min Rain = 0
KTH1 092242Z 30011KT 07/M02 A3036 RMK A01 T00671015  RH  056%=      5-min Rain = 0
KTH1 092243Z 30011KT 07/M02 A3036 RMK A01 T00671015  RH  056%=      5-min Rain = 0
KTH1 092244Z 31011KT 07/M02 A3036 RMK A01 T00661015  RH  056%=      5-min Rain = 0
KTH1 092245Z 30010KT 07/M01 A3036 RMK A01 T00661014  RH  057%=      5-min Rain = 0
KTH1 092246Z 31010KT 07/M02 A3036 RMK A01 T00661016  RH  056%=      5-min Rain = 0
KTH1 092247Z 30009KT 07/M02 A3036 RMK A01 T00661016  RH  056%=      5-min Rain = 0
KTH1 092248Z 30008KT 07/M01 A3036 RMK A01 T00651012  RH  058%=      5-min Rain = 0
KTH1 092249Z 30008KT 07/M01 A3036 RMK A01 T00651013  RH  057%=      5-min Rain = 0
KTH1 092250Z 29009KT 07/M01 A3036 RMK A01 T00651014  RH  057%=      5-min Rain = 0
KTH1 092251Z 30008KT 07/M01 A3036 RMK A01 T00661010  RH  058%=      5-min Rain = 0
KTH1 092252Z 30009KT 07/M01 A3036 RMK A01 T00651010  RH  058%=      5-min Rain = 0
KTH1 092253Z 30009KT 07/M02 A3036 RMK A01 T00661015  RH  057%=      5-min Rain = 0
KTH1 092254Z 30009KT 07/M01 A3036 RMK A01 T00651012  RH  058%=      5-min Rain = 0
KTH1 092255Z 30008KT 07/M01 A3036 RMK A01 T00651012  RH  058%=      5-min Rain = 0
KTH1 092256Z 30009KT 07/M01 A3036 RMK A01 T00651014  RH  057%=      5-min Rain = 0
KTH1 092257Z 30008KT 06/M02 A3036 RMK A01 T00641016  RH  057%=      5-min Rain = 0
KTH1 092258Z 30008KT 06/M01 A3036 RMK A01 T00641014  RH  057%=      5-min Rain = 0
KTH1 092259Z 31010KT 06/M02 A3036 RMK A01 T00641015  RH  057%=      5-min Rain = 0
KTH1 092300Z 30010KT 06/M02 A3036 RMK A01 T00641017  RH  056%=      5-min Rain = 0
KTH1 092301Z 30008KT 06/M02 A3036 RMK A01 T00631018  RH  056%=      5-min Rain = 0
KTH1 092302Z 31008KT 06/M01 A3036 RMK A01 T00631014  RH  058%=      5-min Rain = 0
KTH1 092303Z 31007KT 06/M01 A3036 RMK A01 T00631014  RH  058%=      5-min Rain = 0
KTH1 092304Z 30008KT 06/M01 A3036 RMK A01 T00621014  RH  058%=      5-min Rain = 0
KTH1 092305Z 30008KT 06/M01 A3036 RMK A01 T00621014  RH  058%=      5-min Rain = 0
KTH1 092306Z 30008KT 06/M01 A3036 RMK A01 T00621014  RH  058%=      5-min Rain = 0
KTH1 092307Z 30009KT 06/M01 A3036 RMK A01 T00621012  RH  059%=      5-min Rain = 0
KTH1 092308Z 30008KT 06/M02 A3036 RMK A01 T00611015  RH  058%=      5-min Rain = 0
KTH1 092309Z 30008KT 06/M02 A3036 RMK A01 T00611017  RH  057%=      5-min Rain = 0
KTH1 092310Z 30008KT 06/M02 A3036 RMK A01 T00601019  RH  057%=      5-min Rain = 0
KTH1 092311Z 30008KT 06/M02 A3036 RMK A01 T00601016  RH  058%=      5-min Rain = 0
KTH1 092312Z 30008KT 06/M02 A3036 RMK A01 T00601017  RH  058%=      5-min Rain = 0
KTH1 092313Z 30008KT 06/M02 A3036 RMK A01 T00601017  RH  058%=      5-min Rain = 0
KTH1 092314Z 30008KT 06/M02 A3036 RMK A01 T00591018  RH  058%=      5-min Rain = 0
KTH1 092315Z 30007KT 06/M02 A3036 RMK A01 T00591016  RH  058%=      5-min Rain = 0
KTH1 092316Z 30007KT 06/M01 A3036 RMK A01 T00591014  RH  059%=      5-min Rain = 0
KTH1 092317Z 30007KT 06/M01 A3036 RMK A01 T00591011  RH  061%=      5-min Rain = 0
KTH1 092318Z 30007KT 06/M02 A3036 RMK A01 T00581015  RH  059%=      5-min Rain = 0
KTH1 092319Z 29007KT 06/M02 A3036 RMK A01 T00581016  RH  059%=      5-min Rain = 0
KTH1 092320Z 29007KT 06/M02 A3036 RMK A01 T00571016  RH  059%=      5-min Rain = 0
KTH1 092321Z 29006KT 06/M01 A3036 RMK A01 T00571013  RH  061%=      5-min Rain = 0
KTH1 092322Z 29006KT 06/M01 A3036 RMK A01 T00561011  RH  062%=      5-min Rain = 0
KTH1 092323Z 29007KT 06/M01 A3036 RMK A01 T00561013  RH  061%=      5-min Rain = 0
KTH1 092324Z 29007KT 06/M02 A3036 RMK A01 T00551015  RH  060%=      5-min Rain = 0
KTH1 092325Z 29007KT 05/M01 A3036 RMK A01 T00541014  RH  061%=      5-min Rain = 0
KTH1 092326Z 29007KT 05/M01 A3036 RMK A01 T00541013  RH  062%=      5-min Rain = 0
KTH1 092327Z 29008KT 05/M01 A3036 RMK A01 T00531013  RH  063%=      5-min Rain = 0
KTH1 092328Z 29007KT 05/M01 A3036 RMK A01 T00521013  RH  063%=      5-min Rain = 0
KTH1 092329Z 30008KT 05/M01 A3036 RMK A01 T00511010  RH  065%=      5-min Rain = 0
KTH1 092330Z 29008KT 05/M01 A3036 RMK A01 T00511009  RH  065%=      5-min Rain = 0
KTH1 092331Z 29008KT 05/M01 A3036 RMK A01 T00501010  RH  065%=      5-min Rain = 0
KTH1 092332Z 29007KT 05/M01 A3036 RMK A01 T00501010  RH  065%=      5-min Rain = 0
KTH1 092333Z 29008KT 05/M01 A3036 RMK A01 T00491009  RH  066%=      5-min Rain = 0
KTH1 092334Z 29008KT 05/M01 A3036 RMK A01 T00491008  RH  066%=      5-min Rain = 0
KTH1 092335Z 29009KT 05/M01 A3036 RMK A01 T00491011  RH  065%=      5-min Rain = 0
KTH1 092336Z 29008KT 05/M01 A3036 RMK A01 T00481013  RH  064%=      5-min Rain = 0
KTH1 092337Z 30008KT 05/M01 A3036 RMK A01 T00481011  RH  066%=      5-min Rain = 0
KTH1 092338Z 30008KT 05/M01 A3036 RMK A01 T00481011  RH  066%=      5-min Rain = 0
KTH1 092339Z 30008KT 05/M01 A3036 RMK A01 T00471012  RH  065%=      5-min Rain = 0
KTH1 092340Z 30008KT 05/M01 A3036 RMK A01 T00471011  RH  066%=      5-min Rain = 0
KTH1 092341Z 29007KT 05/M01 A3036 RMK A01 T00471012  RH  066%=      5-min Rain = 0
KTH1 092342Z 30008KT 05/M01 A3036 RMK A01 T00461010  RH  067%=      5-min Rain = 0
KTH1 092343Z 30008KT 05/M01 A3036 RMK A01 T00461011  RH  067%=      5-min Rain = 0
KTH1 092344Z 30008KT 05/M01 A3036 RMK A01 T00451013  RH  066%=      5-min Rain = 0
KTH1 092345Z 29008KT 05/M01 A3036 RMK A01 T00451013  RH  066%=      5-min Rain = 0
KTH1 092346Z 30007KT 05/M01 A3036 RMK A01 T00451012  RH  067%=      5-min Rain = 0
KTH1 092347Z 29007KT 05/M01 A3036 RMK A01 T00451012  RH  067%=      5-min Rain = 0
KTH1 092348Z 29007KT 04/M01 A3036 RMK A01 T00441011  RH  067%=      5-min Rain = 0
KTH1 092349Z 29007KT 04/M01 A3036 RMK A01 T00441011  RH  068%=      5-min Rain = 0
KTH1 092350Z 29007KT 04/M01 A3036 RMK A01 T00431011  RH  068%=      5-min Rain = 0
KTH1 092351Z 29007KT 04/M01 A3036 RMK A01 T00421014  RH  067%=      5-min Rain = 0
KTH1 092352Z 29007KT 04/M01 A3036 RMK A01 T00421013  RH  068%=      5-min Rain = 0
KTH1 092353Z 29007KT 04/M01 A3036 RMK A01 T00411010  RH  069%=      5-min Rain = 0
KTH1 092354Z 29007KT 04/M01 A3036 RMK A01 T00411011  RH  069%=      5-min Rain = 0
KTH1 092355Z 29007KT 04/M01 A3036 RMK A01 T00411010  RH  069%=      5-min Rain = 0
KTH1 092356Z 29007KT 04/M01 A3036 RMK A01 T00411011  RH  069%=      5-min Rain = 0
KTH1 092357Z 29007KT 04/M01 A3036 RMK A01 T00411009  RH  070%=      5-min Rain = 0
KTH1 092358Z 29007KT 04/M01 A3036 RMK A01 T00411010  RH  070%=      5-min Rain = 0
KTH1 092359Z 28007KT 04/M01 A3036 RMK A01 T00411009  RH  070%=      5-min Rain = 0
KTH1 100000Z 28007KT 04/M01 A3036 RMK A01 T00401009  RH  070%=      5-min Rain = 0
KTH1 100001Z 28007KT 04/M01 A3036 RMK A01 T00401008  RH  071%=      5-min Rain = 0
KTH1 100002Z 28008KT 04/M01 A3036 RMK A01 T00401009  RH  071%=      5-min Rain = 0
KTH1 100003Z 28008KT 04/M01 A3036 RMK A01 T00401010  RH  070%=      5-min Rain = 0
KTH1 100004Z 28008KT 04/M01 A3036 RMK A01 T00401011  RH  070%=      5-min Rain = 0
KTH1 100005Z 28007KT 04/M01 A3036 RMK A01 T00401010  RH  070%=      5-min Rain = 0
KTH1 100006Z 28007KT 04/M01 A3036 RMK A01 T00391010  RH  070%=      5-min Rain = 0
KTH1 100007Z 28007KT 04/M01 A3036 RMK A01 T00391010  RH  070%=      5-min Rain = 0
KTH1 100008Z 28007KT 04/M01 A3036 RMK A01 T00391008  RH  071%=      5-min Rain = 0
KTH1 100009Z 28007KT 04/M01 A3036 RMK A01 T00391008  RH  071%=      5-min Rain = 0
KTH1 100010Z 28007KT 04/M01 A3036 RMK A01 T00391007  RH  072%=      5-min Rain = 0
KTH1 100011Z 28008KT 04/M01 A3036 RMK A01 T00391007  RH  072%=      5-min Rain = 0
KTH1 100012Z 28008KT 04/M01 A3036 RMK A01 T00391007  RH  072%=      5-min Rain = 0
KTH1 100013Z 28007KT 04/M01 A3036 RMK A01 T00391008  RH  071%=      5-min Rain = 0
KTH1 100014Z 28008KT 04/M01 A3036 RMK A01 T00391008  RH  072%=      5-min Rain = 0
KTH1 100015Z 28008KT 04/M01 A3036 RMK A01 T00391008  RH  071%=      5-min Rain = 0
KTH1 100016Z 28008KT 04/M01 A3036 RMK A01 T00381009  RH  071%=      5-min Rain = 0
KTH1 100017Z 28008KT 04/M01 A3036 RMK A01 T00381007  RH  072%=      5-min Rain = 0
KTH1 100018Z 28008KT 04/M01 A3036 RMK A01 T00381008  RH  072%=      5-min Rain = 0
KTH1 100019Z 28008KT 04/M01 A3036 RMK A01 T00381008  RH  072%=      5-min Rain = 0
KTH1 100020Z 28008KT 04/M01 A3036 RMK A01 T00381007  RH  072%=      5-min Rain = 0
KTH1 100021Z 28008KT 04/M01 A3036 RMK A01 T00381008  RH  072%=      5-min Rain = 0
KTH1 100022Z 28008KT 04/M01 A3036 RMK A01 T00381009  RH  072%=      5-min Rain = 0
KTH1 100023Z 28009KT 04/M01 A3036 RMK A01 T00381009  RH  071%=      5-min Rain = 0
KTH1 100024Z 28008KT 04/M01 A3036 RMK A01 T00381009  RH  071%=      5-min Rain = 0
KTH1 100025Z 28009KT 04/M01 A3036 RMK A01 T00371009  RH  072%=      5-min Rain = 0
KTH1 100026Z 28007KT 04/M01 A3036 RMK A01 T00371009  RH  072%=      5-min Rain = 0
KTH1 100027Z 28008KT 04/M01 A3036 RMK A01 T00371008  RH  072%=      5-min Rain = 0
KTH1 100028Z 28008KT 04/M01 A3036 RMK A01 T00371009  RH  072%=      5-min Rain = 0
KTH1 100029Z 28008KT 04/M01 A3036 RMK A01 T00361008  RH  073%=      5-min Rain = 0
KTH1 100030Z 28008KT 04/M01 A3036 RMK A01 T00361009  RH  072%=      5-min Rain = 0
KTH1 100031Z 28007KT 04/M01 A3036 RMK A01 T00361009  RH  072%=      5-min Rain = 0
KTH1 100032Z 28007KT 04/M01 A3036 RMK A01 T00361008  RH  073%=      5-min Rain = 0
KTH1 100033Z 28007KT 04/M01 A3036 RMK A01 T00351007  RH  074%=      5-min Rain = 0
KTH1 100034Z 28006KT 04/M01 A3036 RMK A01 T00351008  RH  074%=      5-min Rain = 0
KTH1 100035Z 28007KT 03/M01 A3036 RMK A01 T00341007  RH  074%=      5-min Rain = 0
KTH1 100036Z 28007KT 03/M01 A3036 RMK A01 T00341007  RH  074%=      5-min Rain = 0
KTH1 100037Z 28007KT 03/M01 A3036 RMK A01 T00341007  RH  074%=      5-min Rain = 0
KTH1 100038Z 27006KT 03/M01 A3036 RMK A01 T00341009  RH  073%=      5-min Rain = 0
KTH1 100039Z 27006KT 03/M01 A3036 RMK A01 T00341008  RH  074%=      5-min Rain = 0
KTH1 100040Z 28006KT 03/M01 A3036 RMK A01 T00341008  RH  074%=      5-min Rain = 0
KTH1 100041Z 27007KT 03/M01 A3036 RMK A01 T00341007  RH  075%=      5-min Rain = 0
KTH1 100042Z 27006KT 03/M01 A3036 RMK A01 T00331009  RH  074%=      5-min Rain = 0
KTH1 100043Z 27006KT 03/M01 A3036 RMK A01 T00331008  RH  075%=      5-min Rain = 0
KTH1 100044Z 27006KT 03/M01 A3036 RMK A01 T00331007  RH  075%=      5-min Rain = 0
KTH1 100045Z 27006KT 03/M01 A3036 RMK A01 T00331006  RH  076%=      5-min Rain = 0
KTH1 100046Z 27006KT 03/M01 A3036 RMK A01 T00321007  RH  076%=      5-min Rain = 0
KTH1 100047Z 27006KT 03/M01 A3036 RMK A01 T00321006  RH  076%=      5-min Rain = 0
KTH1 100048Z 27005KT 03/M01 A3036 RMK A01 T00321007  RH  076%=      5-min Rain = 0
KTH1 100049Z 27006KT 03/M01 A3036 RMK A01 T00311006  RH  076%=      5-min Rain = 0
KTH1 100050Z 27006KT 03/M01 A3036 RMK A01 T00311005  RH  077%=      5-min Rain = 0
KTH1 100051Z 27006KT 03/M01 A3036 RMK A01 T00311005  RH  077%=      5-min Rain = 0
KTH1 100052Z 27005KT 03/M00 A3036 RMK A01 T00311004  RH  078%=      5-min Rain = 0
KTH1 100053Z 27006KT 03/M00 A3036 RMK A01 T00301004  RH  078%=      5-min Rain = 0
KTH1 100054Z 27005KT 03/M01 A3036 RMK A01 T00301005  RH  078%=      5-min Rain = 0
KTH1 100055Z 27006KT 03/M00 A3036 RMK A01 T00301004  RH  079%=      5-min Rain = 0
KTH1 100056Z 27006KT 03/M00 A3036 RMK A01 T00291004  RH  079%=      5-min Rain = 0
KTH1 100057Z 27006KT 03/M00 A3036 RMK A01 T00291003  RH  079%=      5-min Rain = 0
KTH1 100058Z 27006KT 03/M00 A3036 RMK A01 T00291003  RH  080%=      5-min Rain = 0
KTH1 100059Z 28006KT 03/M00 A3036 RMK A01 T00291004  RH  079%=      5-min Rain = 0
KTH1 100100Z 28006KT 03/M01 A3036 RMK A01 T00291005  RH  078%=      5-min Rain = 0
KTH1 100101Z 28006KT 03/M01 A3036 RMK A01 T00291005  RH  078%=      5-min Rain = 0
KTH1 100102Z 28006KT 03/M01 A3036 RMK A01 T00291006  RH  078%=      5-min Rain = 0
KTH1 100103Z 28006KT 03/M01 A3036 RMK A01 T00291006  RH  078%=      5-min Rain = 0
KTH1 100104Z 28006KT 03/M01 A3036 RMK A01 T00291006  RH  077%=      5-min Rain = 0
KTH1 100105Z 28006KT 03/M01 A3036 RMK A01 T00291006  RH  078%=      5-min Rain = 0
KTH1 100106Z 29007KT 03/M01 A3036 RMK A01 T00291007  RH  077%=      5-min Rain = 0
KTH1 100107Z 29007KT 03/M01 A3036 RMK A01 T00291008  RH  077%=      5-min Rain = 0
KTH1 100108Z 28006KT 03/M01 A3037 RMK A01 T00291008  RH  077%=      5-min Rain = 0
KTH1 100109Z 29007KT 03/M01 A3037 RMK A01 T00301006  RH  077%=      5-min Rain = 0
KTH1 100110Z 28007KT 03/M01 A3037 RMK A01 T00301007  RH  077%=      5-min Rain = 0
KTH1 100111Z 29006KT 03/M01 A3037 RMK A01 T00301008  RH  076%=      5-min Rain = 0
KTH1 100112Z 28007KT 03/M01 A3037 RMK A01 T00301007  RH  077%=      5-min Rain = 0
KTH1 100113Z 28008KT 03/M01 A3037 RMK A01 T00301008  RH  076%=      5-min Rain = 0
KTH1 100114Z 28007KT 03/M01 A3037 RMK A01 T00301009  RH  076%=      5-min Rain = 0
KTH1 100115Z 28007KT 03/M01 A3037 RMK A01 T00301008  RH  076%=      5-min Rain = 0
KTH1 100116Z 28008KT 03/M01 A3037 RMK A01 T00301008  RH  076%=      5-min Rain = 0
KTH1 100117Z 28008KT 03/M01 A3037 RMK A01 T00301009  RH  076%=      5-min Rain = 0
KTH1 100118Z 28007KT 03/M01 A3037 RMK A01 T00291009  RH  076%=      5-min Rain = 0
KTH1 100119Z 28007KT 03/M01 A3037 RMK A01 T00301008  RH  076%=      5-min Rain = 0
KTH1 100120Z 28007KT 03/M01 A3037 RMK A01 T00301007  RH  077%=      5-min Rain = 0
KTH1 100121Z 28007KT 03/M01 A3037 RMK A01 T00301007  RH  077%=      5-min Rain = 0
KTH1 100122Z 28007KT 03/M01 A3037 RMK A01 T00301008  RH  076%=      5-min Rain = 0
KTH1 100123Z 28007KT 03/M01 A3037 RMK A01 T00301009  RH  076%=      5-min Rain = 0
KTH1 100124Z 28007KT 03/M01 A3037 RMK A01 T00301009  RH  076%=      5-min Rain = 0
KTH1 100125Z 27006KT 03/M01 A3037 RMK A01 T00301008  RH  076%=      5-min Rain = 0
KTH1 100126Z 27006KT 03/M01 A3037 RMK A01 T00301007  RH  077%=      5-min Rain = 0
KTH1 100127Z 28007KT 03/M01 A3037 RMK A01 T00301006  RH  077%=      5-min Rain = 0
KTH1 100128Z 27006KT 03/M01 A3037 RMK A01 T00301007  RH  077%=      5-min Rain = 0
KTH1 100129Z 27006KT 03/M01 A3037 RMK A01 T00301007  RH  076%=      5-min Rain = 0
KTH1 100130Z 27006KT 03/M01 A3037 RMK A01 T00301007  RH  076%=      5-min Rain = 0
KTH1 100131Z 27006KT 03/M01 A3037 RMK A01 T00301008  RH  076%=      5-min Rain = 0
KTH1 100132Z 27007KT 03/M01 A3037 RMK A01 T00301007  RH  077%=      5-min Rain = 0
KTH1 100133Z 27006KT 03/M01 A3037 RMK A01 T00291008  RH  077%=      5-min Rain = 0
KTH1 100134Z 27007KT 03/M01 A3037 RMK A01 T00291007  RH  077%=      5-min Rain = 0
KTH1 100135Z 27006KT 03/M01 A3038 RMK A01 T00291006  RH  078%=      5-min Rain = 0
KTH1 100136Z 27006KT 03/M01 A3038 RMK A01 T00291007  RH  077%=      5-min Rain = 0
KTH1 100137Z 28006KT 03/M01 A3038 RMK A01 T00281007  RH  078%=      5-min Rain = 0
KTH1 100138Z 27006KT 03/M01 A3038 RMK A01 T00281006  RH  078%=      5-min Rain = 0
KTH1 100139Z 28006KT 03/M01 A3038 RMK A01 T00281005  RH  079%=      5-min Rain = 0
KTH1 100140Z 28006KT 03/M01 A3038 RMK A01 T00281006  RH  079%=      5-min Rain = 0
KTH1 100141Z 28007KT 03/M01 A3038 RMK A01 T00281006  RH  078%=      5-min Rain = 0
KTH1 100142Z 28007KT 03/M01 A3038 RMK A01 T00281007  RH  078%=      5-min Rain = 0
KTH1 100143Z 27006KT 03/M01 A3038 RMK A01 T00271008  RH  077%=      5-min Rain = 0
KTH1 100144Z 28006KT 03/M01 A3038 RMK A01 T00271009  RH  077%=      5-min Rain = 0
KTH1 100145Z 28005KT 03/M01 A3038 RMK A01 T00271009  RH  077%=      5-min Rain = 0
KTH1 100146Z 27006KT 03/M01 A3038 RMK A01 T00261008  RH  078%=      5-min Rain = 0
KTH1 100147Z 27006KT 03/M01 A3038 RMK A01 T00261008  RH  078%=      5-min Rain = 0
KTH1 100148Z 27006KT 03/M01 A3038 RMK A01 T00261009  RH  078%=      5-min Rain = 0
KTH1 100149Z 27006KT 03/M01 A3038 RMK A01 T00251008  RH  079%=      5-min Rain = 0
KTH1 100150Z 27006KT 03/M01 A3038 RMK A01 T00251008  RH  079%=      5-min Rain = 0
KTH1 100151Z 27005KT 03/M01 A3038 RMK A01 T00251008  RH  079%=      5-min Rain = 0
KTH1 100152Z 27006KT 02/M01 A3038 RMK A01 T00241008  RH  079%=      5-min Rain = 0
KTH1 100153Z 27006KT 02/M01 A3038 RMK A01 T00241009  RH  079%=      5-min Rain = 0
KTH1 100154Z 28006KT 02/M01 A3038 RMK A01 T00241008  RH  080%=      5-min Rain = 0
KTH1 100155Z 27005KT 02/M01 A3038 RMK A01 T00241008  RH  080%=      5-min Rain = 0
KTH1 100156Z 28006KT 02/M01 A3038 RMK A01 T00241007  RH  080%=      5-min Rain = 0
KTH1 100157Z 28005KT 02/M01 A3038 RMK A01 T00241010  RH  078%=      5-min Rain = 0
KTH1 100158Z 29006KT 02/M01 A3038 RMK A01 T00241010  RH  079%=      5-min Rain = 0
KTH1 100159Z 29006KT 02/M01 A3038 RMK A01 T00241010  RH  078%=      5-min Rain = 0
KTH1 100200Z 28007KT 02/M01 A3038 RMK A01 T00231012  RH  077%=      5-min Rain = 0
KTH1 100201Z 28006KT 02/M01 A3038 RMK A01 T00231013  RH  077%=      5-min Rain = 0
KTH1 100202Z 29007KT 02/M01 A3038 RMK A01 T00231011  RH  078%=      5-min Rain = 0
KTH1 100203Z 28006KT 02/M01 A3038 RMK A01 T00231013  RH  077%=      5-min Rain = 0
KTH1 100204Z 29006KT 02/M01 A3038 RMK A01 T00231012  RH  077%=      5-min Rain = 0
KTH1 100205Z 29007KT 02/M01 A3038 RMK A01 T00231012  RH  078%=      5-min Rain = 0
KTH1 100206Z 29006KT 02/M01 A3039 RMK A01 T00231013  RH  077%=      5-min Rain = 0
KTH1 100207Z 29006KT 02/M01 A3039 RMK A01 T00231012  RH  078%=      5-min Rain = 0
KTH1 100208Z 29007KT 02/M01 A3039 RMK A01 T00231012  RH  078%=      5-min Rain = 0
KTH1 100209Z 29006KT 02/M01 A3039 RMK A01 T00231013  RH  077%=      5-min Rain = 0
KTH1 100210Z 29007KT 02/M01 A3039 RMK A01 T00231012  RH  077%=      5-min Rain = 0
KTH1 100211Z 29006KT 02/M01 A3039 RMK A01 T00231014  RH  077%=      5-min Rain = 0
KTH1 100212Z 29007KT 02/M01 A3039 RMK A01 T00231014  RH  077%=      5-min Rain = 0
KTH1 100213Z 29007KT 02/M01 A3039 RMK A01 T00231014  RH  077%=      5-min Rain = 0
KTH1 100214Z 29006KT 02/M02 A3039 RMK A01 T00231015  RH  076%=      5-min Rain = 0
KTH1 100215Z 29006KT 02/M01 A3039 RMK A01 T00231014  RH  076%=      5-min Rain = 0
KTH1 100216Z 29006KT 02/M01 A3039 RMK A01 T00231013  RH  077%=      5-min Rain = 0
KTH1 100217Z 29006KT 02/M01 A3039 RMK A01 T00231014  RH  077%=      5-min Rain = 0
KTH1 100218Z 29007KT 02/M02 A3039 RMK A01 T00231015  RH  076%=      5-min Rain = 0
KTH1 100219Z 29007KT 02/M02 A3039 RMK A01 T00231015  RH  076%=      5-min Rain = 0
KTH1 100220Z 29008KT 02/M02 A3039 RMK A01 T00231015  RH  076%=      5-min Rain = 0
KTH1 100221Z 29007KT 02/M02 A3039 RMK A01 T00231016  RH  075%=      5-min Rain = 0
KTH1 100222Z 29007KT 02/M02 A3039 RMK A01 T00231016  RH  075%=      5-min Rain = 0
KTH1 100223Z 29008KT 02/M02 A3039 RMK A01 T00231015  RH  076%=      5-min Rain = 0
KTH1 100224Z 29007KT 02/M02 A3039 RMK A01 T00231016  RH  075%=      5-min Rain = 0
KTH1 100225Z 29007KT 02/M02 A3039 RMK A01 T00231016  RH  075%=      5-min Rain = 0
KTH1 100226Z 29007KT 02/M02 A3039 RMK A01 T00231017  RH  075%=      5-min Rain = 0
KTH1 100227Z 29006KT 02/M02 A3039 RMK A01 T00241016  RH  075%=      5-min Rain = 0
KTH1 100228Z 29006KT 02/M02 A3038 RMK A01 T00241016  RH  075%=      5-min Rain = 0
KTH1 100229Z 29006KT 02/M02 A3038 RMK A01 T00241016  RH  075%=      5-min Rain = 0
KTH1 100230Z 28006KT 02/M02 A3038 RMK A01 T00241016  RH  075%=      5-min Rain = 0
KTH1 100231Z 28006KT 02/M02 A3038 RMK A01 T00241015  RH  075%=      5-min Rain = 0
KTH1 100232Z 28005KT 02/M02 A3038 RMK A01 T00241015  RH  076%=      5-min Rain = 0
KTH1 100233Z 28006KT 02/M02 A3038 RMK A01 T00241015  RH  076%=      5-min Rain = 0
KTH1 100234Z 27006KT 02/M02 A3038 RMK A01 T00241015  RH  076%=      5-min Rain = 0
KTH1 100235Z 27006KT 02/M01 A3038 RMK A01 T00231014  RH  077%=      5-min Rain = 0
KTH1 100236Z 27006KT 02/M01 A3038 RMK A01 T00231014  RH  076%=      5-min Rain = 0
KTH1 100237Z 27006KT 02/M01 A3038 RMK A01 T00231014  RH  077%=      5-min Rain = 0
KTH1 100238Z 27006KT 02/M01 A3038 RMK A01 T00221013  RH  078%=      5-min Rain = 0
KTH1 100239Z 27006KT 02/M01 A3038 RMK A01 T00221014  RH  077%=      5-min Rain = 0
KTH1 100240Z 27007KT 02/M01 A3038 RMK A01 T00221014  RH  077%=      5-min Rain = 0
KTH1 100241Z 28006KT 02/M01 A3038 RMK A01 T00221014  RH  077%=      5-min Rain = 0
KTH1 100242Z 27006KT 02/M01 A3038 RMK A01 T00221014  RH  077%=      5-min Rain = 0
KTH1 100243Z 28007KT 02/M01 A3039 RMK A01 T00221014  RH  077%=      5-min Rain = 0
KTH1 100244Z 28006KT 02/M01 A3039 RMK A01 T00221013  RH  077%=      5-min Rain = 0
KTH1 100245Z 28007KT 02/M01 A3039 RMK A01 T00221013  RH  077%=      5-min Rain = 0
KTH1 100246Z 27006KT 02/M01 A3039 RMK A01 T00221014  RH  077%=      5-min Rain = 0
KTH1 100247Z 28007KT 02/M01 A3039 RMK A01 T00221014  RH  077%=      5-min Rain = 0
KTH1 100248Z 27007KT 02/M01 A3039 RMK A01 T00221013  RH  077%=      5-min Rain = 0
KTH1 100249Z 28007KT 02/M02 A3039 RMK A01 T00221015  RH  077%=      5-min Rain = 0
KTH1 100250Z 28007KT 02/M01 A3039 RMK A01 T00221014  RH  077%=      5-min Rain = 0
KTH1 100251Z 28007KT 02/M01 A3039 RMK A01 T00211014  RH  077%=      5-min Rain = 0
KTH1 100252Z 28006KT 02/M01 A3039 RMK A01 T00211014  RH  077%=      5-min Rain = 0
KTH1 100253Z 28007KT 02/M01 A3039 RMK A01 T00211014  RH  078%=      5-min Rain = 0
KTH1 100254Z 28006KT 02/M02 A3039 RMK A01 T00211015  RH  077%=      5-min Rain = 0
KTH1 100255Z 28007KT 02/M02 A3039 RMK A01 T00211015  RH  077%=      5-min Rain = 0
KTH1 100256Z 28007KT 02/M02 A3039 RMK A01 T00211015  RH  077%=      5-min Rain = 0
KTH1 100257Z 28008KT 02/M01 A3039 RMK A01 T00211014  RH  078%=      5-min Rain = 0
KTH1 100258Z 28007KT 02/M02 A3039 RMK A01 T00211015  RH  077%=      5-min Rain = 0
KTH1 100259Z 28007KT 02/M02 A3039 RMK A01 T00211016  RH  077%=      5-min Rain = 0
KTH1 100300Z 27006KT 02/M02 A3039 RMK A01 T00211015  RH  077%=      5-min Rain = 0
KTH1 100301Z 28007KT 02/M01 A3039 RMK A01 T00211014  RH  077%=      5-min Rain = 0
KTH1 100302Z 27007KT 02/M01 A3039 RMK A01 T00211014  RH  078%=      5-min Rain = 0
KTH1 100303Z 27007KT 02/M01 A3039 RMK A01 T00211013  RH  078%=      5-min Rain = 0
KTH1 100304Z 28007KT 02/M01 A3039 RMK A01 T00221013  RH  078%=      5-min Rain = 0
KTH1 100305Z 27008KT 02/M01 A3039 RMK A01 T00211013  RH  078%=      5-min Rain = 0
KTH1 100306Z 27008KT 02/M01 A3039 RMK A01 T00211013  RH  078%=      5-min Rain = 0
KTH1 100307Z 27008KT 02/M01 A3039 RMK A01 T00211014  RH  077%=      5-min Rain = 0
KTH1 100308Z 27008KT 02/M01 A3039 RMK A01 T00211014  RH  078%=      5-min Rain = 0
KTH1 100309Z 27007KT 02/M01 A3039 RMK A01 T00211013  RH  078%=      5-min Rain = 0
KTH1 100310Z 27008KT 02/M01 A3039 RMK A01 T00211013  RH  078%=      5-min Rain = 0
KTH1 100311Z 27007KT 02/M01 A3039 RMK A01 T00211013  RH  078%=      5-min Rain = 0
KTH1 100312Z 27007KT 02/M01 A3039 RMK A01 T00211013  RH  078%=      5-min Rain = 0
KTH1 100313Z 27007KT 02/M02 A3039 RMK A01 T00211015  RH  077%=      5-min Rain = 0
KTH1 100314Z 27007KT 02/M02 A3039 RMK A01 T00211015  RH  077%=      5-min Rain = 0
KTH1 100315Z 27006KT 02/M01 A3039 RMK A01 T00211014  RH  077%=      5-min Rain = 0
KTH1 100316Z 27007KT 02/M01 A3039 RMK A01 T00211014  RH  077%=      5-min Rain = 0
KTH1 100317Z 27006KT 02/M01 A3038 RMK A01 T00211014  RH  078%=      5-min Rain = 0
KTH1 100318Z 26006KT 02/M01 A3038 RMK A01 T00211010  RH  080%=      5-min Rain = 0
KTH1 100319Z 26006KT 02/M01 A3038 RMK A01 T00211011  RH  079%=      5-min Rain = 0
KTH1 100320Z 26006KT 02/M01 A3038 RMK A01 T00201012  RH  079%=      5-min Rain = 0
KTH1 100321Z 26006KT 02/M01 A3038 RMK A01 T00201013  RH  079%=      5-min Rain = 0
KTH1 100322Z 26006KT 02/M01 A3038 RMK A01 T00191014  RH  079%=      5-min Rain = 0
KTH1 100323Z 26006KT 02/M02 A3038 RMK A01 T00181017  RH  078%=      5-min Rain = 0
KTH1 100324Z 25005KT 02/M02 A3038 RMK A01 T00181015  RH  079%=      5-min Rain = 0
KTH1 100325Z 25005KT 02/M02 A3038 RMK A01 T00171016  RH  079%=      5-min Rain = 0
KTH1 100326Z 24006KT 02/M02 A3038 RMK A01 T00171019  RH  077%=      5-min Rain = 0
KTH1 100327Z 24006KT 02/M02 A3038 RMK A01 T00161021  RH  076%=      5-min Rain = 0
KTH1 100328Z 25007KT 02/M02 A3038 RMK A01 T00151024  RH  076%=      5-min Rain = 0
KTH1 100329Z 25007KT 02/M02 A3038 RMK A01 T00151024  RH  075%=      5-min Rain = 0
KTH1 100330Z 25006KT 02/M03 A3038 RMK A01 T00151025  RH  075%=      5-min Rain = 0
KTH1 100331Z 25006KT 02/M02 A3038 RMK A01 T00151024  RH  075%=      5-min Rain = 0
KTH1 100332Z 25006KT 02/M02 A3038 RMK A01 T00151023  RH  076%=      5-min Rain = 0
KTH1 100333Z 25006KT 02/M02 A3038 RMK A01 T00151022  RH  076%=      5-min Rain = 0
KTH1 100334Z 25005KT 02/M02 A3038 RMK A01 T00151021  RH  077%=      5-min Rain = 0
KTH1 100335Z 25005KT 02/M02 A3038 RMK A01 T00151020  RH  077%=      5-min Rain = 0
KTH1 100336Z 25005KT 02/M02 A3038 RMK A01 T00151019  RH  078%=      5-min Rain = 0
KTH1 100337Z 26005KT 02/M02 A3038 RMK A01 T00151018  RH  078%=      5-min Rain = 0
KTH1 100338Z 25005KT 02/M02 A3038 RMK A01 T00161016  RH  079%=      5-min Rain = 0
KTH1 100339Z 26005KT 02/M02 A3038 RMK A01 T00161016  RH  079%=      5-min Rain = 0
KTH1 100340Z 25005KT 02/M02 A3038 RMK A01 T00161016  RH  079%=      5-min Rain = 0
KTH1 100341Z 25005KT 02/M02 A3038 RMK A01 T00161015  RH  079%=      5-min Rain = 0
KTH1 100342Z 25005KT 02/M02 A3038 RMK A01 T00161017  RH  079%=      5-min Rain = 0
KTH1 100343Z 25004KT 02/M02 A3038 RMK A01 T00151018  RH  078%=      5-min Rain = 0
KTH1 100344Z 24004KT 02/M02 A3038 RMK A01 T00151020  RH  078%=      5-min Rain = 0
KTH1 100345Z 24004KT 01/M02 A3038 RMK A01 T00141021  RH  077%=      5-min Rain = 0
KTH1 100346Z 24004KT 01/M02 A3038 RMK A01 T00131024  RH  077%=      5-min Rain = 0
KTH1 100347Z 24005KT 01/M03 A3038 RMK A01 T00111025  RH  076%=      5-min Rain = 0
KTH1 100348Z 24006KT 01/M03 A3038 RMK A01 T00111026  RH  076%=      5-min Rain = 0
KTH1 100349Z 24005KT 01/M03 A3038 RMK A01 T00111026  RH  076%=      5-min Rain = 0
KTH1 100350Z 24005KT 01/M03 A3038 RMK A01 T00111026  RH  076%=      5-min Rain = 0
KTH1 100351Z 24005KT 01/M03 A3038 RMK A01 T00111026  RH  077%=      5-min Rain = 0
KTH1 100352Z 24005KT 01/M03 A3038 RMK A01 T00111025  RH  077%=      5-min Rain = 0
KTH1 100353Z 24005KT 01/M02 A3038 RMK A01 T00111024  RH  077%=      5-min Rain = 0
KTH1 100354Z 24005KT 01/M03 A3038 RMK A01 T00111025  RH  077%=      5-min Rain = 0
KTH1 100355Z 24005KT 01/M03 A3038 RMK A01 T00111025  RH  077%=      5-min Rain = 0
KTH1 100356Z 25005KT 01/M03 A3038 RMK A01 T00111025  RH  077%=      5-min Rain = 0
KTH1 100357Z 24005KT 01/M03 A3038 RMK A01 T00111025  RH  077%=      5-min Rain = 0
KTH1 100358Z 25006KT 01/M03 A3038 RMK A01 T00111025  RH  077%=      5-min Rain = 0
KTH1 100359Z 25005KT 01/M03 A3038 RMK A01 T00111025  RH  077%=      5-min Rain = 0
KTH1 100400Z 25005KT 01/M02 A3038 RMK A01 T00111024  RH  077%=      5-min Rain = 0
KTH1 100401Z 25005KT 01/M02 A3038 RMK A01 T00121022  RH  078%=      5-min Rain = 0
KTH1 100402Z 25005KT 01/M02 A3038 RMK A01 T00121022  RH  078%=      5-min Rain = 0
KTH1 100403Z 24005KT 01/M02 A3038 RMK A01 T00121022  RH  078%=      5-min Rain = 0
KTH1 100404Z 24005KT 01/M02 A3038 RMK A01 T00121024  RH  077%=      5-min Rain = 0
KTH1 100405Z 24005KT 01/M03 A3038 RMK A01 T00121026  RH  076%=      5-min Rain = 0
KTH1 100406Z 24006KT 01/M03 A3038 RMK A01 T00111028  RH  075%=      5-min Rain = 0
KTH1 100407Z 24005KT 01/M03 A3038 RMK A01 T00111029  RH  075%=      5-min Rain = 0
KTH1 100408Z 24006KT 01/M03 A3038 RMK A01 T00101029  RH  075%=      5-min Rain = 0
KTH1 100409Z 24006KT 01/M03 A3038 RMK A01 T00101030  RH  075%=      5-min Rain = 0
KTH1 100410Z 24006KT 01/M03 A3038 RMK A01 T00101030  RH  074%=      5-min Rain = 0
KTH1 100411Z 24006KT 01/M03 A3038 RMK A01 T00111031  RH  073%=      5-min Rain = 0
KTH1 100412Z 24006KT 01/M03 A3038 RMK A01 T00121032  RH  072%=      5-min Rain = 0
KTH1 100413Z 24006KT 01/M03 A3038 RMK A01 T00121033  RH  072%=      5-min Rain = 0
KTH1 100414Z 24006KT 01/M03 A3038 RMK A01 T00131033  RH  071%=      5-min Rain = 0
KTH1 100415Z 24006KT 01/M03 A3038 RMK A01 T00131034  RH  071%=      5-min Rain = 0
KTH1 100416Z 24006KT 01/M03 A3038 RMK A01 T00131034  RH  071%=      5-min Rain = 0
KTH1 100417Z 24007KT 01/M03 A3038 RMK A01 T00131034  RH  071%=      5-min Rain = 0
KTH1 100418Z 24006KT 01/M03 A3038 RMK A01 T00131033  RH  071%=      5-min Rain = 0
KTH1 100419Z 24006KT 01/M03 A3038 RMK A01 T00131032  RH  072%=      5-min Rain = 0
KTH1 100420Z 24007KT 01/M03 A3038 RMK A01 T00131033  RH  072%=      5-min Rain = 0
KTH1 100421Z 24007KT 01/M03 A3038 RMK A01 T00131032  RH  072%=      5-min Rain = 0
KTH1 100422Z 24007KT 01/M03 A3038 RMK A01 T00121031  RH  073%=      5-min Rain = 0
KTH1 100423Z 24007KT 01/M03 A3038 RMK A01 T00121029  RH  074%=      5-min Rain = 0
KTH1 100424Z 24007KT 01/M03 A3038 RMK A01 T00111027  RH  075%=      5-min Rain = 0
KTH1 100425Z 25007KT 01/M03 A3038 RMK A01 T00111026  RH  076%=      5-min Rain = 0
KTH1 100426Z 25007KT 01/M02 A3038 RMK A01 T00121022  RH  078%=      5-min Rain = 0
KTH1 100427Z 25008KT 01/M02 A3038 RMK A01 T00121019  RH  080%=      5-min Rain = 0
KTH1 100428Z 25008KT 01/M02 A3038 RMK A01 T00131019  RH  079%=      5-min Rain = 0
KTH1 100429Z 25008KT 01/M02 A3038 RMK A01 T00131019  RH  079%=      5-min Rain = 0
KTH1 100430Z 25007KT 01/M02 A3038 RMK A01 T00131020  RH  079%=      5-min Rain = 0
KTH1 100431Z 25008KT 01/M02 A3038 RMK A01 T00121019  RH  080%=      5-min Rain = 0
KTH1 100432Z 25008KT 01/M02 A3038 RMK A01 T00121021  RH  079%=      5-min Rain = 0
KTH1 100433Z 25008KT 01/M02 A3038 RMK A01 T00111023  RH  078%=      5-min Rain = 0
KTH1 100434Z 25008KT 01/M02 A3038 RMK A01 T00111023  RH  078%=      5-min Rain = 0
KTH1 100435Z 25007KT 01/M02 A3038 RMK A01 T00111023  RH  078%=      5-min Rain = 0
KTH1 100436Z 25008KT 01/M02 A3038 RMK A01 T00111022  RH  079%=      5-min Rain = 0
KTH1 100437Z 25008KT 01/M02 A3038 RMK A01 T00111023  RH  078%=      5-min Rain = 0
KTH1 100438Z 25008KT 01/M02 A3038 RMK A01 T00101023  RH  079%=      5-min Rain = 0
KTH1 100439Z 24008KT 01/M02 A3038 RMK A01 T00101024  RH  078%=      5-min Rain = 0
KTH1 100440Z 24007KT 01/M03 A3038 RMK A01 T00091027  RH  077%=      5-min Rain = 0
KTH1 100441Z 24007KT 01/M03 A3038 RMK A01 T00081028  RH  077%=      5-min Rain = 0
KTH1 100442Z 24007KT 01/M03 A3038 RMK A01 T00081028  RH  077%=      5-min Rain = 0
KTH1 100443Z 25007KT 01/M03 A3038 RMK A01 T00081028  RH  077%=      5-min Rain = 0
KTH1 100444Z 25007KT 01/M03 A3038 RMK A01 T00081027  RH  078%=      5-min Rain = 0
KTH1 100445Z 25007KT 01/M03 A3038 RMK A01 T00081027  RH  078%=      5-min Rain = 0
KTH1 100446Z 25007KT 01/M03 A3038 RMK A01 T00081025  RH  078%=      5-min Rain = 0
KTH1 100447Z 25006KT 01/M02 A3038 RMK A01 T00091024  RH  079%=      5-min Rain = 0
KTH1 100448Z 25007KT 01/M02 A3038 RMK A01 T00091024  RH  079%=      5-min Rain = 0
KTH1 100449Z 25007KT 01/M02 A3038 RMK A01 T00101024  RH  078%=      5-min Rain = 0
KTH1 100450Z 25006KT 01/M03 A3038 RMK A01 T00101025  RH  077%=      5-min Rain = 0
KTH1 100451Z 26007KT 01/M02 A3038 RMK A01 T00111023  RH  078%=      5-min Rain = 0
KTH1 100452Z 26007KT 01/M02 A3038 RMK A01 T00111021  RH  079%=      5-min Rain = 0
KTH1 100453Z 25007KT 01/M02 A3038 RMK A01 T00111023  RH  078%=      5-min Rain = 0
KTH1 100454Z 26007KT 01/M02 A3038 RMK A01 T00111024  RH  077%=      5-min Rain = 0
KTH1 100455Z 26006KT 01/M03 A3038 RMK A01 T00101026  RH  077%=      5-min Rain = 0
KTH1 100456Z 26006KT 01/M03 A3038 RMK A01 T00091026  RH  077%=      5-min Rain = 0
KTH1 100457Z 26006KT 01/M02 A3039 RMK A01 T00091024  RH  078%=      5-min Rain = 0
KTH1 100458Z 26006KT 01/M02 A3039 RMK A01 T00091024  RH  078%=      5-min Rain = 0
KTH1 100459Z 26006KT 01/M02 A3039 RMK A01 T00091024  RH  079%=      5-min Rain = 0
KTH1 100500Z 27006KT 01/M02 A3039 RMK A01 T00091023  RH  079%=      5-min Rain = 0
KTH1 100501Z 26006KT 01/M02 A3039 RMK A01 T00091021  RH  080%=      5-min Rain = 0
KTH1 100502Z 26006KT 01/M02 A3039 RMK A01 T00091021  RH  081%=      5-min Rain = 0
KTH1 100503Z 27006KT 01/M02 A3039 RMK A01 T00091022  RH  080%=      5-min Rain = 0
KTH1 100504Z 27006KT 01/M02 A3039 RMK A01 T00101021  RH  080%=      5-min Rain = 0
KTH1 100505Z 27005KT 01/M02 A3039 RMK A01 T00101020  RH  080%=      5-min Rain = 0
KTH1 100506Z 27006KT 01/M02 A3039 RMK A01 T00111020  RH  080%=      5-min Rain = 0
KTH1 100507Z 26005KT 01/M02 A3039 RMK A01 T00121021  RH  079%=      5-min Rain = 0
KTH1 100508Z 26005KT 01/M02 A3039 RMK A01 T00131021  RH  078%=      5-min Rain = 0
KTH1 100509Z 26004KT 01/M02 A3038 RMK A01 T00131022  RH  077%=      5-min Rain = 0
KTH1 100510Z 24004KT 01/M03 A3038 RMK A01 T00131026  RH  075%=      5-min Rain = 0
KTH1 100511Z 24004KT 01/M03 A3038 RMK A01 T00121030  RH  074%=      5-min Rain = 0
KTH1 100512Z 24004KT 01/M03 A3038 RMK A01 T00101034  RH  072%=      5-min Rain = 0
KTH1 100513Z 24004KT 01/M04 A3038 RMK A01 T00101036  RH  071%=      5-min Rain = 0
KTH1 100514Z 24006KT 01/M04 A3038 RMK A01 T00101036  RH  071%=      5-min Rain = 0
KTH1 100515Z 25006KT 01/M04 A3038 RMK A01 T00111037  RH  070%=      5-min Rain = 0
KTH1 100516Z 25007KT 01/M04 A3038 RMK A01 T00131036  RH  070%=      5-min Rain = 0
KTH1 100517Z 25007KT 02/M04 A3038 RMK A01 T00151035  RH  069%=      5-min Rain = 0
KTH1 100518Z 25007KT 02/M03 A3038 RMK A01 T00161034  RH  069%=      5-min Rain = 0
KTH1 100519Z 26007KT 02/M03 A3038 RMK A01 T00161033  RH  070%=      5-min Rain = 0
KTH1 100520Z 25007KT 02/M03 A3038 RMK A01 T00171031  RH  070%=      5-min Rain = 0
KTH1 100521Z 25006KT 02/M03 A3038 RMK A01 T00171029  RH  071%=      5-min Rain = 0
KTH1 100522Z 25006KT 02/M03 A3038 RMK A01 T00171029  RH  072%=      5-min Rain = 0
KTH1 100523Z 25006KT 02/M03 A3038 RMK A01 T00171027  RH  073%=      5-min Rain = 0
KTH1 100524Z 25006KT 02/M02 A3038 RMK A01 T00171024  RH  074%=      5-min Rain = 0
KTH1 100525Z 25005KT 02/M03 A3038 RMK A01 T00171026  RH  073%=      5-min Rain = 0
KTH1 100526Z 25005KT 02/M03 A3038 RMK A01 T00161028  RH  073%=      5-min Rain = 0
KTH1 100527Z 25005KT 02/M03 A3037 RMK A01 T00161026  RH  073%=      5-min Rain = 0
KTH1 100528Z 25005KT 02/M03 A3037 RMK A01 T00151029  RH  072%=      5-min Rain = 0
KTH1 100529Z 24005KT 02/M03 A3037 RMK A01 T00151030  RH  072%=      5-min Rain = 0
KTH1 100530Z 24005KT 01/M03 A3037 RMK A01 T00141031  RH  072%=      5-min Rain = 0
KTH1 100531Z 25005KT 01/M03 A3037 RMK A01 T00141032  RH  071%=      5-min Rain = 0
KTH1 100532Z 25005KT 01/M04 A3037 RMK A01 T00131035  RH  070%=      5-min Rain = 0
KTH1 100533Z 25005KT 01/M04 A3037 RMK A01 T00141035  RH  070%=      5-min Rain = 0
KTH1 100534Z 25005KT 01/M04 A3037 RMK A01 T00131035  RH  070%=      5-min Rain = 0
KTH1 100535Z 25005KT 01/M04 A3037 RMK A01 T00131035  RH  070%=      5-min Rain = 0
KTH1 100536Z 25005KT 01/M04 A3037 RMK A01 T00141035  RH  070%=      5-min Rain = 0
KTH1 100537Z 25005KT 01/M03 A3037 RMK A01 T00141034  RH  070%=      5-min Rain = 0
KTH1 100538Z 24005KT 01/M04 A3037 RMK A01 T00141036  RH  069%=      5-min Rain = 0
KTH1 100539Z 24005KT 01/M04 A3037 RMK A01 T00141038  RH  068%=      5-min Rain = 0
KTH1 100540Z 24005KT 02/M04 A3037 RMK A01 T00151041  RH  067%=      5-min Rain = 0
KTH1 100541Z 24006KT 02/M04 A3037 RMK A01 T00151042  RH  066%=      5-min Rain = 0
KTH1 100542Z 24006KT 02/M04 A3037 RMK A01 T00151043  RH  066%=      5-min Rain = 0
KTH1 100543Z 24006KT 01/M04 A3037 RMK A01 T00141042  RH  066%=      5-min Rain = 0
KTH1 100544Z 24006KT 01/M04 A3037 RMK A01 T00141043  RH  066%=      5-min Rain = 0
KTH1 100545Z 24007KT 01/M04 A3037 RMK A01 T00141044  RH  065%=      5-min Rain = 0
KTH1 100546Z 24007KT 02/M05 A3037 RMK A01 T00151045  RH  064%=      5-min Rain = 0
KTH1 100547Z 24007KT 02/M05 A3037 RMK A01 T00161046  RH  064%=      5-min Rain = 0
KTH1 100548Z 24006KT 02/M05 A3037 RMK A01 T00161045  RH  064%=      5-min Rain = 0
KTH1 100549Z 24006KT 02/M05 A3037 RMK A01 T00161046  RH  064%=      5-min Rain = 0
KTH1 100550Z 24007KT 02/M05 A3037 RMK A01 T00151047  RH  063%=      5-min Rain = 0
KTH1 100551Z 24006KT 02/M05 A3037 RMK A01 T00161047  RH  063%=      5-min Rain = 0
KTH1 100552Z 24006KT 02/M05 A3037 RMK A01 T00151047  RH  063%=      5-min Rain = 0
KTH1 100553Z 24006KT 02/M05 A3037 RMK A01 T00151047  RH  063%=      5-min Rain = 0
KTH1 100554Z 24007KT 02/M05 A3037 RMK A01 T00151046  RH  064%=      5-min Rain = 0
KTH1 100555Z 24006KT 02/M05 A3037 RMK A01 T00161045  RH  064%=      5-min Rain = 0
KTH1 100556Z 24006KT 02/M05 A3037 RMK A01 T00151045  RH  064%=      5-min Rain = 0
KTH1 100557Z 24006KT 02/M05 A3037 RMK A01 T00151045  RH  064%=      5-min Rain = 0
KTH1 100558Z 23006KT 01/M05 A3037 RMK A01 T00141046  RH  064%=      5-min Rain = 0
KTH1 100559Z 23005KT 01/M05 A3037 RMK A01 T00131046  RH  065%=      5-min Rain = 0

Page generated in 0.1943 seconds.